Observation data for Panhandle on 07/20/2019      Previous  Date       Current Mesonet Observations  Soil Data  Daily Summary Page  Observations in Plain Language
KPA1 200500Z 15014KT 28/17 A2993 RMK A01 T02760167  RH  051%=      5-min Rain = 0
KPA1 200501Z 15013KT 28/17 A2993 RMK A01 T02760167  RH  051%=      5-min Rain = 0
KPA1 200502Z 15014KT 28/17 A2993 RMK A01 T02760167  RH  051%=      5-min Rain = 0
KPA1 200503Z 15012KT 28/17 A2993 RMK A01 T02760167  RH  051%=      5-min Rain = 0
KPA1 200504Z 15013KT 28/17 A2993 RMK A01 T02750167  RH  052%=      5-min Rain = 0
KPA1 200505Z 16011KT 28/17 A2993 RMK A01 T02750167  RH  052%=      5-min Rain = 0
KPA1 200506Z 15011KT 27/17 A2993 RMK A01 T02740167  RH  052%=      5-min Rain = 0
KPA1 200507Z 16013KT 27/17 A2993 RMK A01 T02730167  RH  053%=      5-min Rain = 0
KPA1 200508Z 15013KT 27/17 A2993 RMK A01 T02720167  RH  053%=      5-min Rain = 0
KPA1 200509Z 16011KT 27/17 A2994 RMK A01 T02720167  RH  053%=      5-min Rain = 0
KPA1 200510Z 16012KT 27/17 A2994 RMK A01 T02720168  RH  053%=      5-min Rain = 0
KPA1 200511Z 16011KT 27/17 A2994 RMK A01 T02720168  RH  053%=      5-min Rain = 0
KPA1 200512Z 16012KT 27/17 A2994 RMK A01 T02710167  RH  053%=      5-min Rain = 0
KPA1 200513Z 16011KT 27/17 A2994 RMK A01 T02710167  RH  053%=      5-min Rain = 0
KPA1 200514Z 16011KT 27/17 A2994 RMK A01 T02720167  RH  053%=      5-min Rain = 0
KPA1 200515Z 16013KT 27/17 A2994 RMK A01 T02720167  RH  053%=      5-min Rain = 0
KPA1 200516Z 16012KT 27/17 A2994 RMK A01 T02720166  RH  052%=      5-min Rain = 0
KPA1 200517Z 16013KT 27/17 A2994 RMK A01 T02730166  RH  052%=      5-min Rain = 0
KPA1 200518Z 16013KT 27/17 A2994 RMK A01 T02730166  RH  052%=      5-min Rain = 0
KPA1 200519Z 16013KT 27/17 A2994 RMK A01 T02740166  RH  052%=      5-min Rain = 0
KPA1 200520Z 16012KT 27/17 A2994 RMK A01 T02740166  RH  052%=      5-min Rain = 0
KPA1 200521Z 16013KT 27/17 A2994 RMK A01 T02740166  RH  052%=      5-min Rain = 0
KPA1 200522Z 16012KT 27/17 A2994 RMK A01 T02740166  RH  052%=      5-min Rain = 0
KPA1 200523Z 16012KT 27/17 A2994 RMK A01 T02730166  RH  052%=      5-min Rain = 0
KPA1 200524Z 16012KT 27/17 A2994 RMK A01 T02720166  RH  052%=      5-min Rain = 0
KPA1 200525Z 16012KT 27/17 A2994 RMK A01 T02720166  RH  052%=      5-min Rain = 0
KPA1 200526Z 16012KT 27/17 A2994 RMK A01 T02720166  RH  052%=      5-min Rain = 0
KPA1 200527Z 16012KT 27/17 A2994 RMK A01 T02720165  RH  052%=      5-min Rain = 0
KPA1 200528Z 16011KT 27/17 A2994 RMK A01 T02710165  RH  052%=      5-min Rain = 0
KPA1 200529Z 16011KT 27/17 A2994 RMK A01 T02720165  RH  052%=      5-min Rain = 0
KPA1 200530Z 16011KT 27/17 A2994 RMK A01 T02710166  RH  052%=      5-min Rain = 0
KPA1 200531Z 16011KT 27/17 A2994 RMK A01 T02710165  RH  052%=      5-min Rain = 0
KPA1 200532Z 16011KT 27/17 A2994 RMK A01 T02710165  RH  052%=      5-min Rain = 0
KPA1 200533Z 16011KT 27/17 A2994 RMK A01 T02700165  RH  052%=      5-min Rain = 0
KPA1 200534Z 16010KT 27/17 A2994 RMK A01 T02700165  RH  053%=      5-min Rain = 0
KPA1 200535Z 16010KT 27/17 A2994 RMK A01 T02690165  RH  053%=      5-min Rain = 0
KPA1 200536Z 16011KT 27/17 A2994 RMK A01 T02680165  RH  053%=      5-min Rain = 0
KPA1 200537Z 16010KT 27/17 A2994 RMK A01 T02680165  RH  053%=      5-min Rain = 0
KPA1 200538Z 16010KT 27/16 A2994 RMK A01 T02670164  RH  053%=      5-min Rain = 0
KPA1 200539Z 16011KT 27/16 A2994 RMK A01 T02660164  RH  053%=      5-min Rain = 0
KPA1 200540Z 16009KT 27/16 A2994 RMK A01 T02660164  RH  054%=      5-min Rain = 0
KPA1 200541Z 16011KT 27/16 A2994 RMK A01 T02660164  RH  054%=      5-min Rain = 0
KPA1 200542Z 16010KT 27/16 A2994 RMK A01 T02650163  RH  054%=      5-min Rain = 0
KPA1 200543Z 17010KT 27/16 A2994 RMK A01 T02650163  RH  053%=      5-min Rain = 0
KPA1 200544Z 17011KT 27/16 A2994 RMK A01 T02650163  RH  053%=      5-min Rain = 0
KPA1 200545Z 17011KT 27/16 A2994 RMK A01 T02650162  RH  053%=      5-min Rain = 0
KPA1 200546Z 17011KT 27/16 A2994 RMK A01 T02650162  RH  053%=      5-min Rain = 0
KPA1 200547Z 17011KT 27/16 A2994 RMK A01 T02660162  RH  053%=      5-min Rain = 0
KPA1 200548Z 17011KT 27/16 A2994 RMK A01 T02660161  RH  053%=      5-min Rain = 0
KPA1 200549Z 17011KT 27/16 A2994 RMK A01 T02650161  RH  053%=      5-min Rain = 0
KPA1 200550Z 17011KT 27/16 A2994 RMK A01 T02650161  RH  053%=      5-min Rain = 0
KPA1 200551Z 17011KT 26/16 A2994 RMK A01 T02640161  RH  053%=      5-min Rain = 0
KPA1 200552Z 17011KT 26/16 A2994 RMK A01 T02640161  RH  053%=      5-min Rain = 0
KPA1 200553Z 17011KT 26/16 A2994 RMK A01 T02630160  RH  053%=      5-min Rain = 0
KPA1 200554Z 17011KT 26/16 A2994 RMK A01 T02630160  RH  053%=      5-min Rain = 0
KPA1 200555Z 17010KT 26/16 A2994 RMK A01 T02630160  RH  053%=      5-min Rain = 0
KPA1 200556Z 17011KT 26/16 A2994 RMK A01 T02620160  RH  053%=      5-min Rain = 0
KPA1 200557Z 17010KT 26/16 A2994 RMK A01 T02620160  RH  053%=      5-min Rain = 0
KPA1 200558Z 17011KT 26/16 A2994 RMK A01 T02610159  RH  054%=      5-min Rain = 0
KPA1 200559Z 17010KT 26/16 A2994 RMK A01 T02610159  RH  054%=      5-min Rain = 0
KPA1 200600Z 17010KT 26/16 A2994 RMK A01 T02610159  RH  054%=      5-min Rain = 0
KPA1 200601Z 17011KT 26/16 A2994 RMK A01 T02600159  RH  054%=      5-min Rain = 0
KPA1 200602Z 17011KT 26/16 A2994 RMK A01 T02600159  RH  054%=      5-min Rain = 0
KPA1 200603Z 17011KT 26/16 A2994 RMK A01 T02600159  RH  054%=      5-min Rain = 0
KPA1 200604Z 17010KT 26/16 A2994 RMK A01 T02590159  RH  054%=      5-min Rain = 0
KPA1 200605Z 17011KT 26/16 A2994 RMK A01 T02590158  RH  054%=      5-min Rain = 0
KPA1 200606Z 17010KT 26/16 A2994 RMK A01 T02590158  RH  054%=      5-min Rain = 0
KPA1 200607Z 17010KT 26/16 A2994 RMK A01 T02590158  RH  054%=      5-min Rain = 0
KPA1 200608Z 17010KT 26/16 A2994 RMK A01 T02580158  RH  054%=      5-min Rain = 0
KPA1 200609Z 17010KT 26/16 A2994 RMK A01 T02580157  RH  054%=      5-min Rain = 0
KPA1 200610Z 17010KT 26/16 A2994 RMK A01 T02570157  RH  054%=      5-min Rain = 0
KPA1 200611Z 17010KT 26/16 A2994 RMK A01 T02570158  RH  054%=      5-min Rain = 0
KPA1 200612Z 17010KT 26/16 A2994 RMK A01 T02560157  RH  054%=      5-min Rain = 0
KPA1 200613Z 17011KT 26/16 A2994 RMK A01 T02560157  RH  054%=      5-min Rain = 0
KPA1 200614Z 17010KT 26/16 A2994 RMK A01 T02560157  RH  054%=      5-min Rain = 0
KPA1 200615Z 17010KT 26/16 A2994 RMK A01 T02570157  RH  054%=      5-min Rain = 0
KPA1 200616Z 17011KT 26/16 A2994 RMK A01 T02560156  RH  054%=      5-min Rain = 0
KPA1 200617Z 17010KT 26/16 A2994 RMK A01 T02560156  RH  054%=      5-min Rain = 0
KPA1 200618Z 17011KT 26/16 A2994 RMK A01 T02560156  RH  054%=      5-min Rain = 0
KPA1 200619Z 17011KT 26/16 A2994 RMK A01 T02570156  RH  054%=      5-min Rain = 0
KPA1 200620Z 17010KT 26/16 A2994 RMK A01 T02570156  RH  054%=      5-min Rain = 0
KPA1 200621Z 17011KT 26/16 A2994 RMK A01 T02560155  RH  054%=      5-min Rain = 0
KPA1 200622Z 17011KT 26/16 A2994 RMK A01 T02550155  RH  054%=      5-min Rain = 0
KPA1 200623Z 17010KT 26/16 A2994 RMK A01 T02560155  RH  054%=      5-min Rain = 0
KPA1 200624Z 18011KT 26/16 A2994 RMK A01 T02560155  RH  054%=      5-min Rain = 0
KPA1 200625Z 17011KT 26/16 A2994 RMK A01 T02560155  RH  054%=      5-min Rain = 0
KPA1 200626Z 17011KT 26/15 A2994 RMK A01 T02560154  RH  053%=      5-min Rain = 0
KPA1 200627Z 17010KT 26/15 A2994 RMK A01 T02560154  RH  053%=      5-min Rain = 0
KPA1 200628Z 17011KT 26/15 A2994 RMK A01 T02560154  RH  053%=      5-min Rain = 0
KPA1 200629Z 17011KT 26/15 A2994 RMK A01 T02560153  RH  053%=      5-min Rain = 0
KPA1 200630Z 17010KT 26/15 A2994 RMK A01 T02560153  RH  053%=      5-min Rain = 0
KPA1 200631Z 17010KT 26/15 A2994 RMK A01 T02560153  RH  053%=      5-min Rain = 0
KPA1 200632Z 17010KT 26/15 A2994 RMK A01 T02560153  RH  053%=      5-min Rain = 0
KPA1 200633Z 17011KT 26/15 A2994 RMK A01 T02550152  RH  053%=      5-min Rain = 0
KPA1 200634Z 18010KT 26/15 A2994 RMK A01 T02550151  RH  053%=      5-min Rain = 0
KPA1 200635Z 18010KT 26/15 A2994 RMK A01 T02550151  RH  053%=      5-min Rain = 0
KPA1 200636Z 17010KT 26/15 A2994 RMK A01 T02560152  RH  053%=      5-min Rain = 0
KPA1 200637Z 17010KT 26/15 A2994 RMK A01 T02560151  RH  052%=      5-min Rain = 0
KPA1 200638Z 17010KT 26/15 A2994 RMK A01 T02550151  RH  052%=      5-min Rain = 0
KPA1 200639Z 17010KT 26/15 A2994 RMK A01 T02550150  RH  052%=      5-min Rain = 0
KPA1 200640Z 17010KT 26/15 A2994 RMK A01 T02550149  RH  052%=      5-min Rain = 0
KPA1 200641Z 17010KT 26/15 A2994 RMK A01 T02550149  RH  052%=      5-min Rain = 0
KPA1 200642Z 18011KT 26/15 A2994 RMK A01 T02550149  RH  052%=      5-min Rain = 0
KPA1 200643Z 18010KT 26/15 A2994 RMK A01 T02560149  RH  051%=      5-min Rain = 0
KPA1 200644Z 18011KT 26/15 A2994 RMK A01 T02570149  RH  051%=      5-min Rain = 0
KPA1 200645Z 18011KT 26/15 A2994 RMK A01 T02570149  RH  051%=      5-min Rain = 0
KPA1 200646Z 18011KT 26/15 A2994 RMK A01 T02580149  RH  051%=      5-min Rain = 0
KPA1 200647Z 18011KT 26/15 A2994 RMK A01 T02570148  RH  051%=      5-min Rain = 0
KPA1 200648Z 18010KT 26/15 A2994 RMK A01 T02570148  RH  051%=      5-min Rain = 0
KPA1 200649Z 18010KT 26/15 A2995 RMK A01 T02570148  RH  051%=      5-min Rain = 0
KPA1 200650Z 18011KT 26/15 A2995 RMK A01 T02570148  RH  051%=      5-min Rain = 0
KPA1 200651Z 18011KT 26/15 A2995 RMK A01 T02580148  RH  051%=      5-min Rain = 0
KPA1 200652Z 18011KT 26/15 A2995 RMK A01 T02570147  RH  051%=      5-min Rain = 0
KPA1 200653Z 18011KT 26/15 A2995 RMK A01 T02580147  RH  050%=      5-min Rain = 0
KPA1 200654Z 18012KT 26/15 A2995 RMK A01 T02590147  RH  050%=      5-min Rain = 0
KPA1 200655Z 18013KT 26/15 A2995 RMK A01 T02600146  RH  050%=      5-min Rain = 0
KPA1 200656Z 18012KT 26/15 A2995 RMK A01 T02600146  RH  049%=      5-min Rain = 0
KPA1 200657Z 18012KT 26/15 A2995 RMK A01 T02610145  RH  049%=      5-min Rain = 0
KPA1 200658Z 18012KT 26/15 A2995 RMK A01 T02610145  RH  049%=      5-min Rain = 0
KPA1 200659Z 18011KT 26/15 A2995 RMK A01 T02620145  RH  049%=      5-min Rain = 0
KPA1 200700Z 18011KT 26/15 A2995 RMK A01 T02610145  RH  049%=      5-min Rain = 0
KPA1 200701Z 18011KT 26/15 A2995 RMK A01 T02610145  RH  049%=      5-min Rain = 0
KPA1 200702Z 18012KT 26/15 A2995 RMK A01 T02610145  RH  048%=      5-min Rain = 0
KPA1 200703Z 18012KT 26/14 A2995 RMK A01 T02610144  RH  048%=      5-min Rain = 0
KPA1 200704Z 18012KT 26/15 A2995 RMK A01 T02620145  RH  048%=      5-min Rain = 0
KPA1 200705Z 18010KT 26/14 A2995 RMK A01 T02610144  RH  049%=      5-min Rain = 0
KPA1 200706Z 18011KT 26/14 A2995 RMK A01 T02600144  RH  049%=      5-min Rain = 0
KPA1 200707Z 18012KT 26/14 A2995 RMK A01 T02600144  RH  049%=      5-min Rain = 0
KPA1 200708Z 18011KT 26/14 A2994 RMK A01 T02600144  RH  049%=      5-min Rain = 0
KPA1 200709Z 18011KT 26/14 A2994 RMK A01 T02600144  RH  049%=      5-min Rain = 0
KPA1 200710Z 18012KT 26/14 A2994 RMK A01 T02600144  RH  049%=      5-min Rain = 0
KPA1 200711Z 18011KT 26/14 A2994 RMK A01 T02600144  RH  049%=      5-min Rain = 0
KPA1 200712Z 18012KT 26/14 A2994 RMK A01 T02600144  RH  049%=      5-min Rain = 0
KPA1 200713Z 18012KT 26/14 A2994 RMK A01 T02590144  RH  049%=      5-min Rain = 0
KPA1 200714Z 18012KT 26/14 A2994 RMK A01 T02590144  RH  049%=      5-min Rain = 0
KPA1 200715Z 18013KT 26/14 A2994 RMK A01 T02590144  RH  049%=      5-min Rain = 0
KPA1 200716Z 18012KT 26/14 A2994 RMK A01 T02590143  RH  049%=      5-min Rain = 0
KPA1 200717Z 18012KT 26/14 A2994 RMK A01 T02590143  RH  049%=      5-min Rain = 0
KPA1 200718Z 18013KT 26/14 A2994 RMK A01 T02600143  RH  048%=      5-min Rain = 0
KPA1 200719Z 18012KT 26/14 A2994 RMK A01 T02600142  RH  048%=      5-min Rain = 0
KPA1 200720Z 18013KT 26/14 A2994 RMK A01 T02610143  RH  048%=      5-min Rain = 0
KPA1 200721Z 18012KT 26/14 A2994 RMK A01 T02610142  RH  048%=      5-min Rain = 0
KPA1 200722Z 19013KT 26/14 A2994 RMK A01 T02600142  RH  048%=      5-min Rain = 0
KPA1 200723Z 18012KT 26/14 A2994 RMK A01 T02610142  RH  048%=      5-min Rain = 0
KPA1 200724Z 18012KT 26/14 A2994 RMK A01 T02610142  RH  048%=      5-min Rain = 0
KPA1 200725Z 19012KT 26/14 A2994 RMK A01 T02610142  RH  048%=      5-min Rain = 0
KPA1 200726Z 18013KT 26/14 A2994 RMK A01 T02610143  RH  048%=      5-min Rain = 0
KPA1 200727Z 18012KT 26/14 A2994 RMK A01 T02610143  RH  048%=      5-min Rain = 0
KPA1 200728Z 18011KT 26/14 A2994 RMK A01 T02600143  RH  048%=      5-min Rain = 0
KPA1 200729Z 19012KT 26/14 A2994 RMK A01 T02590142  RH  048%=      5-min Rain = 0
KPA1 200730Z 18012KT 26/14 A2994 RMK A01 T02590142  RH  049%=      5-min Rain = 0
KPA1 200731Z 18012KT 26/14 A2994 RMK A01 T02590142  RH  048%=      5-min Rain = 0
KPA1 200732Z 18013KT 26/14 A2994 RMK A01 T02590142  RH  048%=      5-min Rain = 0
KPA1 200733Z 18012KT 26/14 A2994 RMK A01 T02590142  RH  048%=      5-min Rain = 0
KPA1 200734Z 18012KT 26/14 A2994 RMK A01 T02580142  RH  048%=      5-min Rain = 0
KPA1 200735Z 18012KT 26/14 A2994 RMK A01 T02580142  RH  049%=      5-min Rain = 0
KPA1 200736Z 18011KT 26/14 A2994 RMK A01 T02580142  RH  049%=      5-min Rain = 0
KPA1 200737Z 18012KT 26/14 A2994 RMK A01 T02580142  RH  049%=      5-min Rain = 0
KPA1 200738Z 18012KT 26/14 A2994 RMK A01 T02570142  RH  049%=      5-min Rain = 0
KPA1 200739Z 18011KT 26/14 A2994 RMK A01 T02570142  RH  049%=      5-min Rain = 0
KPA1 200740Z 18012KT 26/14 A2994 RMK A01 T02560141  RH  049%=      5-min Rain = 0
KPA1 200741Z 18012KT 26/14 A2994 RMK A01 T02570141  RH  049%=      5-min Rain = 0
KPA1 200742Z 19012KT 26/14 A2994 RMK A01 T02570141  RH  049%=      5-min Rain = 0
KPA1 200743Z 18012KT 26/14 A2994 RMK A01 T02560141  RH  049%=      5-min Rain = 0
KPA1 200744Z 18012KT 26/14 A2994 RMK A01 T02560141  RH  049%=      5-min Rain = 0
KPA1 200745Z 18011KT 26/14 A2994 RMK A01 T02560141  RH  049%=      5-min Rain = 0
KPA1 200746Z 18012KT 26/14 A2994 RMK A01 T02570141  RH  049%=      5-min Rain = 0
KPA1 200747Z 18013KT 26/14 A2994 RMK A01 T02560140  RH  049%=      5-min Rain = 0
KPA1 200748Z 18012KT 26/14 A2994 RMK A01 T02570140  RH  048%=      5-min Rain = 0
KPA1 200749Z 18014KT 26/14 A2994 RMK A01 T02570139  RH  048%=      5-min Rain = 0
KPA1 200750Z 18013KT 26/14 A2994 RMK A01 T02580139  RH  048%=      5-min Rain = 0
KPA1 200751Z 18013KT 26/14 A2994 RMK A01 T02590139  RH  048%=      5-min Rain = 0
KPA1 200752Z 18012KT 26/14 A2994 RMK A01 T02590139  RH  048%=      5-min Rain = 0
KPA1 200753Z 18013KT 26/14 A2994 RMK A01 T02590140  RH  048%=      5-min Rain = 0
KPA1 200754Z 18013KT 26/14 A2994 RMK A01 T02580139  RH  048%=      5-min Rain = 0
KPA1 200755Z 18012KT 26/14 A2994 RMK A01 T02590140  RH  048%=      5-min Rain = 0
KPA1 200756Z 18012KT 26/14 A2994 RMK A01 T02580139  RH  048%=      5-min Rain = 0
KPA1 200757Z 18012KT 26/14 A2994 RMK A01 T02580139  RH  048%=      5-min Rain = 0
KPA1 200758Z 18012KT 26/14 A2994 RMK A01 T02580139  RH  048%=      5-min Rain = 0
KPA1 200759Z 19011KT 26/14 A2994 RMK A01 T02580139  RH  048%=      5-min Rain = 0
KPA1 200800Z 18012KT 26/14 A2994 RMK A01 T02570139  RH  048%=      5-min Rain = 0
KPA1 200801Z 19013KT 26/14 A2994 RMK A01 T02560139  RH  048%=      5-min Rain = 0
KPA1 200802Z 19012KT 26/14 A2994 RMK A01 T02560139  RH  048%=      5-min Rain = 0
KPA1 200803Z 18013KT 26/14 A2994 RMK A01 T02550138  RH  048%=      5-min Rain = 0
KPA1 200804Z 18011KT 26/14 A2994 RMK A01 T02550138  RH  048%=      5-min Rain = 0
KPA1 200805Z 19013KT 26/14 A2994 RMK A01 T02560139  RH  048%=      5-min Rain = 0
KPA1 200806Z 18013KT 26/14 A2994 RMK A01 T02560138  RH  048%=      5-min Rain = 0
KPA1 200807Z 18014KT 26/14 A2994 RMK A01 T02550137  RH  048%=      5-min Rain = 0
KPA1 200808Z 19013KT 26/14 A2994 RMK A01 T02570136  RH  047%=      5-min Rain = 0
KPA1 200809Z 19013KT 26/14 A2994 RMK A01 T02580137  RH  047%=      5-min Rain = 0
KPA1 200810Z 19012KT 26/14 A2994 RMK A01 T02580137  RH  047%=      5-min Rain = 0
KPA1 200811Z 18013KT 26/14 A2994 RMK A01 T02570136  RH  047%=      5-min Rain = 0
KPA1 200812Z 19012G17KT 26/14 A2994 RMK A01 T02570137  RH  047%=      5-min Rain = 0
KPA1 200813Z 19012KT 26/14 A2994 RMK A01 T02570137  RH  047%=      5-min Rain = 0
KPA1 200814Z 19013KT 26/14 A2994 RMK A01 T02560137  RH  048%=      5-min Rain = 0
KPA1 200815Z 19014KT 26/14 A2994 RMK A01 T02560137  RH  048%=      5-min Rain = 0
KPA1 200816Z 19013KT 26/14 A2994 RMK A01 T02560136  RH  047%=      5-min Rain = 0
KPA1 200817Z 19014KT 26/14 A2994 RMK A01 T02560135  RH  047%=      5-min Rain = 0
KPA1 200818Z 19014KT 26/14 A2994 RMK A01 T02570136  RH  047%=      5-min Rain = 0
KPA1 200819Z 19015KT 26/14 A2994 RMK A01 T02570136  RH  047%=      5-min Rain = 0
KPA1 200820Z 19015KT 26/14 A2994 RMK A01 T02570135  RH  047%=      5-min Rain = 0
KPA1 200821Z 19014KT 26/14 A2994 RMK A01 T02580135  RH  046%=      5-min Rain = 0
KPA1 200822Z 19016KT 26/14 A2994 RMK A01 T02590135  RH  046%=      5-min Rain = 0
KPA1 200823Z 19014KT 26/14 A2994 RMK A01 T02600135  RH  046%=      5-min Rain = 0
KPA1 200824Z 19014KT 26/14 A2994 RMK A01 T02600135  RH  046%=      5-min Rain = 0
KPA1 200825Z 19015KT 26/14 A2994 RMK A01 T02600135  RH  046%=      5-min Rain = 0
KPA1 200826Z 19015KT 26/14 A2994 RMK A01 T02600135  RH  046%=      5-min Rain = 0
KPA1 200827Z 19016KT 26/13 A2994 RMK A01 T02600134  RH  046%=      5-min Rain = 0
KPA1 200828Z 19013KT 26/13 A2994 RMK A01 T02600134  RH  046%=      5-min Rain = 0
KPA1 200829Z 19013KT 26/14 A2994 RMK A01 T02600135  RH  046%=      5-min Rain = 0
KPA1 200830Z 19014KT 26/14 A2994 RMK A01 T02590135  RH  046%=      5-min Rain = 0
KPA1 200831Z 19013KT 26/14 A2994 RMK A01 T02590135  RH  046%=      5-min Rain = 0
KPA1 200832Z 19014KT 26/14 A2994 RMK A01 T02580135  RH  046%=      5-min Rain = 0
KPA1 200833Z 19013KT 26/13 A2994 RMK A01 T02580134  RH  046%=      5-min Rain = 0
KPA1 200834Z 19015KT 26/14 A2994 RMK A01 T02580135  RH  046%=      5-min Rain = 0
KPA1 200835Z 19014KT 26/13 A2994 RMK A01 T02580134  RH  046%=      5-min Rain = 0
KPA1 200836Z 19012KT 26/14 A2994 RMK A01 T02580135  RH  046%=      5-min Rain = 0
KPA1 200837Z 19014KT 26/14 A2994 RMK A01 T02580135  RH  047%=      5-min Rain = 0
KPA1 200838Z 20013KT 26/14 A2994 RMK A01 T02570135  RH  047%=      5-min Rain = 0
KPA1 200839Z 19013KT 26/14 A2994 RMK A01 T02570135  RH  047%=      5-min Rain = 0
KPA1 200840Z 19013KT 26/13 A2994 RMK A01 T02570134  RH  046%=      5-min Rain = 0
KPA1 200841Z 20013KT 26/14 A2994 RMK A01 T02580135  RH  046%=      5-min Rain = 0
KPA1 200842Z 20013KT 26/14 A2994 RMK A01 T02570135  RH  047%=      5-min Rain = 0
KPA1 200843Z 19014KT 26/14 A2994 RMK A01 T02570135  RH  047%=      5-min Rain = 0
KPA1 200844Z 19014KT 26/14 A2994 RMK A01 T02570135  RH  047%=      5-min Rain = 0
KPA1 200845Z 20012KT 26/13 A2994 RMK A01 T02570134  RH  046%=      5-min Rain = 0
KPA1 200846Z 20014KT 26/13 A2994 RMK A01 T02570134  RH  047%=      5-min Rain = 0
KPA1 200847Z 19013KT 26/13 A2994 RMK A01 T02560134  RH  047%=      5-min Rain = 0
KPA1 200848Z 19014KT 26/13 A2994 RMK A01 T02560133  RH  046%=      5-min Rain = 0
KPA1 200849Z 19014KT 26/13 A2994 RMK A01 T02570133  RH  046%=      5-min Rain = 0
KPA1 200850Z 19014KT 26/13 A2994 RMK A01 T02570133  RH  046%=      5-min Rain = 0
KPA1 200851Z 19014KT 26/13 A2994 RMK A01 T02570133  RH  046%=      5-min Rain = 0
KPA1 200852Z 19013KT 26/13 A2994 RMK A01 T02570133  RH  046%=      5-min Rain = 0
KPA1 200853Z 19013KT 26/13 A2994 RMK A01 T02570133  RH  046%=      5-min Rain = 0
KPA1 200854Z 19014KT 26/13 A2994 RMK A01 T02570134  RH  046%=      5-min Rain = 0
KPA1 200855Z 20013KT 26/13 A2994 RMK A01 T02560133  RH  046%=      5-min Rain = 0
KPA1 200856Z 20014KT 26/13 A2994 RMK A01 T02560133  RH  046%=      5-min Rain = 0
KPA1 200857Z 19014KT 26/13 A2994 RMK A01 T02560133  RH  046%=      5-min Rain = 0
KPA1 200858Z 19014KT 26/13 A2994 RMK A01 T02570133  RH  046%=      5-min Rain = 0
KPA1 200859Z 20013KT 26/13 A2994 RMK A01 T02560133  RH  046%=      5-min Rain = 0
KPA1 200900Z 19014KT 26/13 A2994 RMK A01 T02550133  RH  047%=      5-min Rain = 0
KPA1 200901Z 19013KT 26/13 A2994 RMK A01 T02550133  RH  047%=      5-min Rain = 0
KPA1 200902Z 20014G19KT 26/13 A2994 RMK A01 T02550132  RH  047%=      5-min Rain = 0
KPA1 200903Z 20015KT 26/13 A2994 RMK A01 T02550133  RH  047%=      5-min Rain = 0
KPA1 200904Z 20014KT 26/13 A2994 RMK A01 T02550133  RH  047%=      5-min Rain = 0
KPA1 200905Z 19016KT 26/13 A2994 RMK A01 T02560133  RH  046%=      5-min Rain = 0
KPA1 200906Z 20014KT 26/13 A2994 RMK A01 T02560132  RH  046%=      5-min Rain = 0
KPA1 200907Z 20015KT 26/13 A2994 RMK A01 T02560133  RH  046%=      5-min Rain = 0
KPA1 200908Z 20014KT 26/13 A2994 RMK A01 T02560133  RH  046%=      5-min Rain = 0
KPA1 200909Z 20017KT 26/13 A2994 RMK A01 T02560133  RH  046%=      5-min Rain = 0
KPA1 200910Z 20015KT 26/13 A2994 RMK A01 T02570133  RH  046%=      5-min Rain = 0
KPA1 200911Z 20016KT 26/13 A2994 RMK A01 T02570133  RH  046%=      5-min Rain = 0
KPA1 200912Z 20015KT 26/13 A2994 RMK A01 T02570132  RH  046%=      5-min Rain = 0
KPA1 200913Z 20017KT 26/13 A2994 RMK A01 T02570132  RH  046%=      5-min Rain = 0
KPA1 200914Z 20016KT 26/13 A2994 RMK A01 T02570132  RH  046%=      5-min Rain = 0
KPA1 200915Z 20015G20KT 26/13 A2994 RMK A01 T02570133  RH  046%=      5-min Rain = 0
KPA1 200916Z 20019KT 26/13 A2994 RMK A01 T02580133  RH  046%=      5-min Rain = 0
KPA1 200917Z 20017KT 26/13 A2994 RMK A01 T02580132  RH  046%=      5-min Rain = 0
KPA1 200918Z 20017KT 26/13 A2994 RMK A01 T02580133  RH  046%=      5-min Rain = 0
KPA1 200919Z 20018KT 26/13 A2994 RMK A01 T02580132  RH  046%=      5-min Rain = 0
KPA1 200920Z 20015KT 26/13 A2994 RMK A01 T02580132  RH  046%=      5-min Rain = 0
KPA1 200921Z 20017KT 26/13 A2994 RMK A01 T02580133  RH  046%=      5-min Rain = 0
KPA1 200922Z 20016KT 26/13 A2994 RMK A01 T02580133  RH  046%=      5-min Rain = 0
KPA1 200923Z 20015KT 26/13 A2994 RMK A01 T02580134  RH  046%=      5-min Rain = 0
KPA1 200924Z 20016G21KT 26/13 A2993 RMK A01 T02570134  RH  046%=      5-min Rain = 0
KPA1 200925Z 20016KT 26/13 A2994 RMK A01 T02570133  RH  046%=      5-min Rain = 0
KPA1 200926Z 19018G23KT 26/13 A2994 RMK A01 T02570133  RH  046%=      5-min Rain = 0
KPA1 200927Z 20018KT 26/13 A2994 RMK A01 T02570132  RH  046%=      5-min Rain = 0
KPA1 200928Z 20015KT 26/13 A2994 RMK A01 T02580133  RH  046%=      5-min Rain = 0
KPA1 200929Z 20018G24KT 26/13 A2994 RMK A01 T02570133  RH  046%=      5-min Rain = 0
KPA1 200930Z 20017KT 26/13 A2994 RMK A01 T02570132  RH  046%=      5-min Rain = 0
KPA1 200931Z 19015KT 26/13 A2994 RMK A01 T02580132  RH  046%=      5-min Rain = 0
KPA1 200932Z 20016KT 26/13 A2993 RMK A01 T02570133  RH  046%=      5-min Rain = 0
KPA1 200933Z 19015KT 26/13 A2994 RMK A01 T02570134  RH  046%=      5-min Rain = 0
KPA1 200934Z 19016KT 26/13 A2994 RMK A01 T02560133  RH  046%=      5-min Rain = 0
KPA1 200935Z 19015KT 26/13 A2994 RMK A01 T02560133  RH  046%=      5-min Rain = 0
KPA1 200936Z 20017KT 26/13 A2994 RMK A01 T02560133  RH  046%=      5-min Rain = 0
KPA1 200937Z 20017KT 26/13 A2994 RMK A01 T02570133  RH  046%=      5-min Rain = 0
KPA1 200938Z 20017KT 26/13 A2993 RMK A01 T02570132  RH  046%=      5-min Rain = 0
KPA1 200939Z 20016KT 26/13 A2994 RMK A01 T02560132  RH  046%=      5-min Rain = 0
KPA1 200940Z 19014KT 26/13 A2994 RMK A01 T02560132  RH  046%=      5-min Rain = 0
KPA1 200941Z 20014KT 26/13 A2994 RMK A01 T02560133  RH  047%=      5-min Rain = 0
KPA1 200942Z 20016KT 26/13 A2994 RMK A01 T02550133  RH  047%=      5-min Rain = 0
KPA1 200943Z 20015KT 26/13 A2994 RMK A01 T02550133  RH  047%=      5-min Rain = 0
KPA1 200944Z 20016KT 26/13 A2994 RMK A01 T02550133  RH  047%=      5-min Rain = 0
KPA1 200945Z 20018KT 26/13 A2994 RMK A01 T02550132  RH  047%=      5-min Rain = 0
KPA1 200946Z 20016G21KT 26/13 A2994 RMK A01 T02560133  RH  046%=      5-min Rain = 0
KPA1 200947Z 20015KT 26/13 A2994 RMK A01 T02560133  RH  046%=      5-min Rain = 0
KPA1 200948Z 20015KT 26/13 A2994 RMK A01 T02560134  RH  047%=      5-min Rain = 0
KPA1 200949Z 20016KT 26/13 A2994 RMK A01 T02550134  RH  047%=      5-min Rain = 0
KPA1 200950Z 20016KT 26/13 A2994 RMK A01 T02550133  RH  047%=      5-min Rain = 0
KPA1 200951Z 20013KT 26/13 A2994 RMK A01 T02550134  RH  047%=      5-min Rain = 0
KPA1 200952Z 20013KT 25/13 A2994 RMK A01 T02530134  RH  048%=      5-min Rain = 0
KPA1 200953Z 20016KT 25/13 A2994 RMK A01 T02520134  RH  048%=      5-min Rain = 0
KPA1 200954Z 20015KT 25/13 A2994 RMK A01 T02530133  RH  047%=      5-min Rain = 0
KPA1 200955Z 20015KT 25/13 A2994 RMK A01 T02530134  RH  047%=      5-min Rain = 0
KPA1 200956Z 20018KT 25/13 A2994 RMK A01 T02530133  RH  047%=      5-min Rain = 0
KPA1 200957Z 20015KT 25/13 A2994 RMK A01 T02540133  RH  047%=      5-min Rain = 0
KPA1 200958Z 20014KT 26/13 A2994 RMK A01 T02550134  RH  047%=      5-min Rain = 0
KPA1 200959Z 20014G19KT 25/13 A2994 RMK A01 T02540134  RH  047%=      5-min Rain = 0
KPA1 201000Z 20015KT 25/13 A2994 RMK A01 T02540134  RH  047%=      5-min Rain = 0
KPA1 201001Z 20014G19KT 25/13 A2994 RMK A01 T02530134  RH  047%=      5-min Rain = 0
KPA1 201002Z 20016KT 25/13 A2994 RMK A01 T02530134  RH  048%=      5-min Rain = 0
KPA1 201003Z 20014KT 25/13 A2994 RMK A01 T02530133  RH  048%=      5-min Rain = 0
KPA1 201004Z 20014KT 25/13 A2994 RMK A01 T02530134  RH  048%=      5-min Rain = 0
KPA1 201005Z 20015KT 25/13 A2994 RMK A01 T02520134  RH  048%=      5-min Rain = 0
KPA1 201006Z 20014KT 25/13 A2994 RMK A01 T02520134  RH  048%=      5-min Rain = 0
KPA1 201007Z 20014KT 25/13 A2994 RMK A01 T02510134  RH  048%=      5-min Rain = 0
KPA1 201008Z 20014KT 25/13 A2994 RMK A01 T02510134  RH  048%=      5-min Rain = 0
KPA1 201009Z 20014KT 25/13 A2994 RMK A01 T02520134  RH  048%=      5-min Rain = 0
KPA1 201010Z 20015KT 25/13 A2994 RMK A01 T02520134  RH  048%=      5-min Rain = 0
KPA1 201011Z 20014KT 25/13 A2994 RMK A01 T02510133  RH  048%=      5-min Rain = 0
KPA1 201012Z 20014KT 25/13 A2994 RMK A01 T02510133  RH  048%=      5-min Rain = 0
KPA1 201013Z 20013KT 25/13 A2994 RMK A01 T02510134  RH  048%=      5-min Rain = 0
KPA1 201014Z 20013KT 25/13 A2994 RMK A01 T02500134  RH  048%=      5-min Rain = 0
KPA1 201015Z 20014KT 25/13 A2994 RMK A01 T02500134  RH  048%=      5-min Rain = 0
KPA1 201016Z 21012KT 25/13 A2994 RMK A01 T02500134  RH  048%=      5-min Rain = 0
KPA1 201017Z 20015KT 25/14 A2994 RMK A01 T02500135  RH  049%=      5-min Rain = 0
KPA1 201018Z 20013KT 25/13 A2994 RMK A01 T02500134  RH  049%=      5-min Rain = 0
KPA1 201019Z 20012KT 25/13 A2994 RMK A01 T02490134  RH  049%=      5-min Rain = 0
KPA1 201020Z 21013KT 25/13 A2994 RMK A01 T02490134  RH  049%=      5-min Rain = 0
KPA1 201021Z 21012KT 25/13 A2994 RMK A01 T02490133  RH  049%=      5-min Rain = 0
KPA1 201022Z 20012KT 25/13 A2994 RMK A01 T02490134  RH  049%=      5-min Rain = 0
KPA1 201023Z 21012KT 25/13 A2994 RMK A01 T02480134  RH  049%=      5-min Rain = 0
KPA1 201024Z 21012G17KT 25/13 A2994 RMK A01 T02470134  RH  049%=      5-min Rain = 0
KPA1 201025Z 21013KT 25/13 A2994 RMK A01 T02480134  RH  049%=      5-min Rain = 0
KPA1 201026Z 21010KT 25/13 A2994 RMK A01 T02480134  RH  049%=      5-min Rain = 0
KPA1 201027Z 21014KT 25/14 A2994 RMK A01 T02470135  RH  049%=      5-min Rain = 0
KPA1 201028Z 20012KT 25/13 A2994 RMK A01 T02470134  RH  049%=      5-min Rain = 0
KPA1 201029Z 20014KT 25/13 A2994 RMK A01 T02470134  RH  049%=      5-min Rain = 0
KPA1 201030Z 20012KT 25/13 A2994 RMK A01 T02480134  RH  049%=      5-min Rain = 0
KPA1 201031Z 20012KT 25/14 A2994 RMK A01 T02480135  RH  049%=      5-min Rain = 0
KPA1 201032Z 20012KT 25/14 A2994 RMK A01 T02480135  RH  049%=      5-min Rain = 0
KPA1 201033Z 21013KT 25/13 A2994 RMK A01 T02480134  RH  049%=      5-min Rain = 0
KPA1 201034Z 20012KT 25/13 A2994 RMK A01 T02480134  RH  049%=      5-min Rain = 0
KPA1 201035Z 21014KT 25/13 A2994 RMK A01 T02480134  RH  049%=      5-min Rain = 0
KPA1 201036Z 21015KT 25/13 A2994 RMK A01 T02480134  RH  049%=      5-min Rain = 0
KPA1 201037Z 20013KT 25/13 A2994 RMK A01 T02490134  RH  049%=      5-min Rain = 0
KPA1 201038Z 20014KT 25/13 A2994 RMK A01 T02490134  RH  049%=      5-min Rain = 0
KPA1 201039Z 21012KT 25/13 A2994 RMK A01 T02490134  RH  049%=      5-min Rain = 0
KPA1 201040Z 20011KT 25/14 A2994 RMK A01 T02480135  RH  049%=      5-min Rain = 0
KPA1 201041Z 20012KT 25/14 A2994 RMK A01 T02480135  RH  049%=      5-min Rain = 0
KPA1 201042Z 21012KT 25/13 A2994 RMK A01 T02470134  RH  049%=      5-min Rain = 0
KPA1 201043Z 21014KT 25/14 A2994 RMK A01 T02470135  RH  050%=      5-min Rain = 0
KPA1 201044Z 20013KT 25/14 A2994 RMK A01 T02470135  RH  050%=      5-min Rain = 0
KPA1 201045Z 20014KT 25/13 A2994 RMK A01 T02470134  RH  049%=      5-min Rain = 0
KPA1 201046Z 20012KT 25/13 A2994 RMK A01 T02480134  RH  049%=      5-min Rain = 0
KPA1 201047Z 20012KT 25/14 A2994 RMK A01 T02480135  RH  049%=      5-min Rain = 0
KPA1 201048Z 20013KT 25/14 A2994 RMK A01 T02480135  RH  049%=      5-min Rain = 0
KPA1 201049Z 20012KT 25/14 A2994 RMK A01 T02480135  RH  049%=      5-min Rain = 0
KPA1 201050Z 20012KT 25/14 A2994 RMK A01 T02470136  RH  050%=      5-min Rain = 0
KPA1 201051Z 20012KT 25/14 A2994 RMK A01 T02460135  RH  050%=      5-min Rain = 0
KPA1 201052Z 20011KT 25/14 A2994 RMK A01 T02460135  RH  050%=      5-min Rain = 0
KPA1 201053Z 20011KT 25/14 A2994 RMK A01 T02460136  RH  050%=      5-min Rain = 0
KPA1 201054Z 20012KT 25/14 A2995 RMK A01 T02460136  RH  050%=      5-min Rain = 0
KPA1 201055Z 20010KT 25/14 A2995 RMK A01 T02450136  RH  051%=      5-min Rain = 0
KPA1 201056Z 20011KT 25/14 A2995 RMK A01 T02450137  RH  051%=      5-min Rain = 0
KPA1 201057Z 20011KT 24/14 A2995 RMK A01 T02440136  RH  051%=      5-min Rain = 0
KPA1 201058Z 21010KT 24/14 A2995 RMK A01 T02440136  RH  051%=      5-min Rain = 0
KPA1 201059Z 20010KT 24/14 A2995 RMK A01 T02440136  RH  051%=      5-min Rain = 0
KPA1 201100Z 20010KT 24/14 A2995 RMK A01 T02430136  RH  051%=      5-min Rain = 0
KPA1 201101Z 20010KT 24/14 A2995 RMK A01 T02430136  RH  051%=      5-min Rain = 0
KPA1 201102Z 20011KT 24/14 A2995 RMK A01 T02420136  RH  051%=      5-min Rain = 0
KPA1 201103Z 20010KT 24/14 A2995 RMK A01 T02430136  RH  051%=      5-min Rain = 0
KPA1 201104Z 20009KT 24/14 A2995 RMK A01 T02430136  RH  051%=      5-min Rain = 0
KPA1 201105Z 20011KT 24/14 A2995 RMK A01 T02420136  RH  051%=      5-min Rain = 0
KPA1 201106Z 20009KT 24/14 A2995 RMK A01 T02430136  RH  051%=      5-min Rain = 0
KPA1 201107Z 20010KT 24/14 A2995 RMK A01 T02430136  RH  051%=      5-min Rain = 0
KPA1 201108Z 20010KT 24/14 A2995 RMK A01 T02430136  RH  051%=      5-min Rain = 0
KPA1 201109Z 20010KT 24/14 A2995 RMK A01 T02430136  RH  051%=      5-min Rain = 0
KPA1 201110Z 20012KT 24/14 A2995 RMK A01 T02420135  RH  051%=      5-min Rain = 0
KPA1 201111Z 20010KT 24/14 A2995 RMK A01 T02430135  RH  051%=      5-min Rain = 0
KPA1 201112Z 20010KT 24/14 A2995 RMK A01 T02440135  RH  051%=      5-min Rain = 0
KPA1 201113Z 20011KT 24/14 A2995 RMK A01 T02440136  RH  051%=      5-min Rain = 0
KPA1 201114Z 20012KT 24/14 A2995 RMK A01 T02440135  RH  051%=      5-min Rain = 0
KPA1 201115Z 20011KT 25/14 A2995 RMK A01 T02450135  RH  050%=      5-min Rain = 0
KPA1 201116Z 20011KT 25/14 A2995 RMK A01 T02450135  RH  050%=      5-min Rain = 0
KPA1 201117Z 20011KT 25/14 A2995 RMK A01 T02450136  RH  051%=      5-min Rain = 0
KPA1 201118Z 20011KT 24/14 A2995 RMK A01 T02440135  RH  051%=      5-min Rain = 0
KPA1 201119Z 20011KT 24/14 A2995 RMK A01 T02440136  RH  051%=      5-min Rain = 0
KPA1 201120Z 20012KT 24/14 A2995 RMK A01 T02440136  RH  051%=      5-min Rain = 0
KPA1 201121Z 20011KT 24/14 A2995 RMK A01 T02440135  RH  050%=      5-min Rain = 0
KPA1 201122Z 20010KT 25/14 A2995 RMK A01 T02450135  RH  050%=      5-min Rain = 0
KPA1 201123Z 19011KT 24/14 A2995 RMK A01 T02440135  RH  051%=      5-min Rain = 0
KPA1 201124Z 19010KT 24/14 A2995 RMK A01 T02440135  RH  051%=      5-min Rain = 0
KPA1 201125Z 19011KT 24/14 A2995 RMK A01 T02430136  RH  051%=      5-min Rain = 0
KPA1 201126Z 19011KT 24/14 A2995 RMK A01 T02430135  RH  051%=      5-min Rain = 0
KPA1 201127Z 19012KT 24/14 A2995 RMK A01 T02440135  RH  051%=      5-min Rain = 0
KPA1 201128Z 20012KT 24/14 A2995 RMK A01 T02440135  RH  051%=      5-min Rain = 0
KPA1 201129Z 19012KT 24/14 A2995 RMK A01 T02440135  RH  051%=      5-min Rain = 0
KPA1 201130Z 19011KT 24/14 A2995 RMK A01 T02440135  RH  051%=      5-min Rain = 0
KPA1 201131Z 19010KT 24/14 A2995 RMK A01 T02440135  RH  051%=      5-min Rain = 0
KPA1 201132Z 19011KT 24/14 A2995 RMK A01 T02430136  RH  051%=      5-min Rain = 0
KPA1 201133Z 19010KT 24/14 A2995 RMK A01 T02430136  RH  051%=      5-min Rain = 0
KPA1 201134Z 19011KT 24/14 A2995 RMK A01 T02420136  RH  051%=      5-min Rain = 0
KPA1 201135Z 19009KT 24/14 A2995 RMK A01 T02420136  RH  051%=      5-min Rain = 0
KPA1 201136Z 19009KT 24/14 A2995 RMK A01 T02410136  RH  052%=      5-min Rain = 0
KPA1 201137Z 19009KT 24/14 A2995 RMK A01 T02400136  RH  052%=      5-min Rain = 0
KPA1 201138Z 19010KT 24/14 A2995 RMK A01 T02400136  RH  052%=      5-min Rain = 0
KPA1 201139Z 19011KT 24/14 A2995 RMK A01 T02400136  RH  052%=      5-min Rain = 0
KPA1 201140Z 19011KT 24/14 A2995 RMK A01 T02410135  RH  052%=      5-min Rain = 0
KPA1 201141Z 19011KT 24/14 A2995 RMK A01 T02420136  RH  052%=      5-min Rain = 0
KPA1 201142Z 19011KT 24/14 A2995 RMK A01 T02420136  RH  052%=      5-min Rain = 0
KPA1 201143Z 19011KT 24/14 A2995 RMK A01 T02410137  RH  052%=      5-min Rain = 0
KPA1 201144Z 19011KT 24/14 A2995 RMK A01 T02410136  RH  052%=      5-min Rain = 0
KPA1 201145Z 18010KT 24/14 A2995 RMK A01 T02410136  RH  052%=      5-min Rain = 0
KPA1 201146Z 19011KT 24/14 A2995 RMK A01 T02400136  RH  052%=      5-min Rain = 0
KPA1 201147Z 19011KT 24/14 A2995 RMK A01 T02400136  RH  052%=      5-min Rain = 0
KPA1 201148Z 18010KT 24/14 A2995 RMK A01 T02400136  RH  052%=      5-min Rain = 0
KPA1 201149Z 19011KT 24/14 A2995 RMK A01 T02400136  RH  052%=      5-min Rain = 0
KPA1 201150Z 19009KT 24/14 A2995 RMK A01 T02400137  RH  053%=      5-min Rain = 0
KPA1 201151Z 19009KT 24/14 A2995 RMK A01 T02390137  RH  053%=      5-min Rain = 0
KPA1 201152Z 19010KT 24/14 A2995 RMK A01 T02380137  RH  053%=      5-min Rain = 0
KPA1 201153Z 19010KT 24/14 A2995 RMK A01 T02380137  RH  053%=      5-min Rain = 0
KPA1 201154Z 19011KT 24/14 A2995 RMK A01 T02380138  RH  053%=      5-min Rain = 0
KPA1 201155Z 19010KT 24/14 A2995 RMK A01 T02380136  RH  053%=      5-min Rain = 0
KPA1 201156Z 19010KT 24/14 A2995 RMK A01 T02380137  RH  053%=      5-min Rain = 0
KPA1 201157Z 18011KT 24/14 A2995 RMK A01 T02380137  RH  053%=      5-min Rain = 0
KPA1 201158Z 19010KT 24/14 A2995 RMK A01 T02380137  RH  053%=      5-min Rain = 0
KPA1 201159Z 18010KT 24/14 A2995 RMK A01 T02380137  RH  053%=      5-min Rain = 0
KPA1 201200Z 19011KT 24/14 A2996 RMK A01 T02380137  RH  053%=      5-min Rain = 0
KPA1 201201Z 19011KT 24/14 A2996 RMK A01 T02380137  RH  053%=      5-min Rain = 0
KPA1 201202Z 19011KT 24/14 A2996 RMK A01 T02380138  RH  053%=      5-min Rain = 0
KPA1 201203Z 19011KT 24/14 A2996 RMK A01 T02370138  RH  054%=      5-min Rain = 0
KPA1 201204Z 19011KT 24/14 A2996 RMK A01 T02370138  RH  054%=      5-min Rain = 0
KPA1 201205Z 19011KT 24/14 A2996 RMK A01 T02380138  RH  053%=      5-min Rain = 0
KPA1 201206Z 18011KT 24/14 A2996 RMK A01 T02380138  RH  053%=      5-min Rain = 0
KPA1 201207Z 19011KT 24/14 A2996 RMK A01 T02380138  RH  053%=      5-min Rain = 0
KPA1 201208Z 19010KT 24/14 A2995 RMK A01 T02380138  RH  054%=      5-min Rain = 0
KPA1 201209Z 19010KT 24/14 A2995 RMK A01 T02380139  RH  054%=      5-min Rain = 0
KPA1 201210Z 19012KT 24/14 A2995 RMK A01 T02370139  RH  054%=      5-min Rain = 0
KPA1 201211Z 19012KT 24/14 A2995 RMK A01 T02370138  RH  054%=      5-min Rain = 0
KPA1 201212Z 19012KT 24/14 A2995 RMK A01 T02380138  RH  053%=      5-min Rain = 0
KPA1 201213Z 18012KT 24/14 A2995 RMK A01 T02390138  RH  053%=      5-min Rain = 0
KPA1 201214Z 18012KT 24/14 A2995 RMK A01 T02400138  RH  053%=      5-min Rain = 0
KPA1 201215Z 18011KT 24/14 A2995 RMK A01 T02410138  RH  053%=      5-min Rain = 0
KPA1 201216Z 18011KT 24/14 A2995 RMK A01 T02410138  RH  053%=      5-min Rain = 0
KPA1 201217Z 18011KT 24/14 A2995 RMK A01 T02410138  RH  053%=      5-min Rain = 0
KPA1 201218Z 18010KT 24/14 A2996 RMK A01 T02410139  RH  053%=      5-min Rain = 0
KPA1 201219Z 18010KT 24/14 A2996 RMK A01 T02400140  RH  053%=      5-min Rain = 0
KPA1 201220Z 18009KT 24/14 A2996 RMK A01 T02390140  RH  054%=      5-min Rain = 0
KPA1 201221Z 18009KT 24/14 A2996 RMK A01 T02380140  RH  054%=      5-min Rain = 0
KPA1 201222Z 18008KT 24/14 A2996 RMK A01 T02370141  RH  055%=      5-min Rain = 0
KPA1 201223Z 18009KT 24/14 A2996 RMK A01 T02360140  RH  055%=      5-min Rain = 0
KPA1 201224Z 18010KT 24/14 A2996 RMK A01 T02360141  RH  055%=      5-min Rain = 0
KPA1 201225Z 18009KT 24/14 A2995 RMK A01 T02350141  RH  056%=      5-min Rain = 0
KPA1 201226Z 17009KT 23/14 A2996 RMK A01 T02340142  RH  056%=      5-min Rain = 0
KPA1 201227Z 18009KT 23/14 A2996 RMK A01 T02340142  RH  056%=      5-min Rain = 0
KPA1 201228Z 18009KT 23/14 A2996 RMK A01 T02330142  RH  056%=      5-min Rain = 0
KPA1 201229Z 17009KT 23/14 A2996 RMK A01 T02330142  RH  056%=      5-min Rain = 0
KPA1 201230Z 17009KT 23/14 A2996 RMK A01 T02330142  RH  056%=      5-min Rain = 0
KPA1 201231Z 17010KT 23/14 A2996 RMK A01 T02330142  RH  056%=      5-min Rain = 0
KPA1 201232Z 17011KT 23/14 A2996 RMK A01 T02340141  RH  056%=      5-min Rain = 0
KPA1 201233Z 17010KT 24/14 A2996 RMK A01 T02360142  RH  056%=      5-min Rain = 0
KPA1 201234Z 17010KT 24/14 A2996 RMK A01 T02360141  RH  055%=      5-min Rain = 0
KPA1 201235Z 17009KT 24/14 A2996 RMK A01 T02380142  RH  055%=      5-min Rain = 0
KPA1 201236Z 17010KT 24/14 A2996 RMK A01 T02380142  RH  055%=      5-min Rain = 0
KPA1 201237Z 17010KT 24/14 A2996 RMK A01 T02390142  RH  055%=      5-min Rain = 0
KPA1 201238Z 17011KT 24/14 A2996 RMK A01 T02400142  RH  054%=      5-min Rain = 0
KPA1 201239Z 17010KT 24/14 A2996 RMK A01 T02400142  RH  054%=      5-min Rain = 0
KPA1 201240Z 17011KT 24/14 A2996 RMK A01 T02400142  RH  054%=      5-min Rain = 0
KPA1 201241Z 17011KT 24/14 A2996 RMK A01 T02410142  RH  054%=      5-min Rain = 0
KPA1 201242Z 18010KT 24/14 A2996 RMK A01 T02420142  RH  054%=      5-min Rain = 0
KPA1 201243Z 18009KT 24/14 A2996 RMK A01 T02420142  RH  054%=      5-min Rain = 0
KPA1 201244Z 18011KT 24/14 A2996 RMK A01 T02430143  RH  054%=      5-min Rain = 0
KPA1 201245Z 18010KT 24/14 A2996 RMK A01 T02430143  RH  053%=      5-min Rain = 0
KPA1 201246Z 18011KT 24/14 A2996 RMK A01 T02440144  RH  054%=      5-min Rain = 0
KPA1 201247Z 18011KT 24/14 A2996 RMK A01 T02440144  RH  054%=      5-min Rain = 0
KPA1 201248Z 18010KT 24/14 A2996 RMK A01 T02440144  RH  054%=      5-min Rain = 0
KPA1 201249Z 18010KT 25/15 A2996 RMK A01 T02450146  RH  054%=      5-min Rain = 0
KPA1 201250Z 18011KT 24/15 A2996 RMK A01 T02440145  RH  054%=      5-min Rain = 0
KPA1 201251Z 18012KT 25/15 A2996 RMK A01 T02450145  RH  054%=      5-min Rain = 0
KPA1 201252Z 18011KT 25/14 A2996 RMK A01 T02450144  RH  053%=      5-min Rain = 0
KPA1 201253Z 18012KT 25/15 A2996 RMK A01 T02460145  RH  053%=      5-min Rain = 0
KPA1 201254Z 18014KT 25/14 A2996 RMK A01 T02470143  RH  053%=      5-min Rain = 0
KPA1 201255Z 18012KT 25/14 A2996 RMK A01 T02470143  RH  052%=      5-min Rain = 0
KPA1 201256Z 18012KT 25/14 A2996 RMK A01 T02480144  RH  052%=      5-min Rain = 0
KPA1 201257Z 18012KT 25/14 A2996 RMK A01 T02490144  RH  052%=      5-min Rain = 0
KPA1 201258Z 18011KT 25/15 A2996 RMK A01 T02480145  RH  052%=      5-min Rain = 0
KPA1 201259Z 18012KT 25/15 A2996 RMK A01 T02490145  RH  052%=      5-min Rain = 0
KPA1 201300Z 18013KT 25/15 A2996 RMK A01 T02500145  RH  052%=      5-min Rain = 0
KPA1 201301Z 18011KT 25/15 A2996 RMK A01 T02500145  RH  052%=      5-min Rain = 0
KPA1 201302Z 19014KT 25/15 A2996 RMK A01 T02500145  RH  052%=      5-min Rain = 0
KPA1 201303Z 19012KT 25/15 A2996 RMK A01 T02500145  RH  052%=      5-min Rain = 0
KPA1 201304Z 19011KT 25/15 A2996 RMK A01 T02510146  RH  052%=      5-min Rain = 0
KPA1 201305Z 18011KT 25/15 A2996 RMK A01 T02510147  RH  053%=      5-min Rain = 0
KPA1 201306Z 19013KT 25/15 A2996 RMK A01 T02510147  RH  052%=      5-min Rain = 0
KPA1 201307Z 19013KT 25/15 A2996 RMK A01 T02510146  RH  052%=      5-min Rain = 0
KPA1 201308Z 19012KT 25/15 A2996 RMK A01 T02510147  RH  052%=      5-min Rain = 0
KPA1 201309Z 19013KT 25/15 A2996 RMK A01 T02510147  RH  052%=      5-min Rain = 0
KPA1 201310Z 19012KT 25/15 A2996 RMK A01 T02510149  RH  053%=      5-min Rain = 0
KPA1 201311Z 19014KT 25/15 A2996 RMK A01 T02510148  RH  053%=      5-min Rain = 0
KPA1 201312Z 19014KT 25/15 A2996 RMK A01 T02510148  RH  053%=      5-min Rain = 0
KPA1 201313Z 19014KT 25/15 A2996 RMK A01 T02510148  RH  053%=      5-min Rain = 0
KPA1 201314Z 19014KT 25/15 A2996 RMK A01 T02520148  RH  053%=      5-min Rain = 0
KPA1 201315Z 19014KT 25/15 A2996 RMK A01 T02520147  RH  052%=      5-min Rain = 0
KPA1 201316Z 19015KT 25/15 A2996 RMK A01 T02530148  RH  052%=      5-min Rain = 0
KPA1 201317Z 19015KT 25/15 A2996 RMK A01 T02540147  RH  052%=      5-min Rain = 0
KPA1 201318Z 19015KT 25/15 A2996 RMK A01 T02540148  RH  052%=      5-min Rain = 0
KPA1 201319Z 19013KT 26/15 A2996 RMK A01 T02550148  RH  052%=      5-min Rain = 0
KPA1 201320Z 19015KT 26/15 A2996 RMK A01 T02550148  RH  052%=      5-min Rain = 0
KPA1 201321Z 19013KT 26/15 A2996 RMK A01 T02550147  RH  051%=      5-min Rain = 0
KPA1 201322Z 19014KT 26/15 A2996 RMK A01 T02560149  RH  052%=      5-min Rain = 0
KPA1 201323Z 19012KT 26/15 A2996 RMK A01 T02560150  RH  052%=      5-min Rain = 0
KPA1 201324Z 19014KT 26/15 A2996 RMK A01 T02560150  RH  052%=      5-min Rain = 0
KPA1 201325Z 19014KT 26/15 A2996 RMK A01 T02570149  RH  051%=      5-min Rain = 0
KPA1 201326Z 19012KT 26/15 A2996 RMK A01 T02580151  RH  052%=      5-min Rain = 0
KPA1 201327Z 19013KT 26/15 A2996 RMK A01 T02580151  RH  052%=      5-min Rain = 0
KPA1 201328Z 19015KT 26/15 A2996 RMK A01 T02580151  RH  052%=      5-min Rain = 0
KPA1 201329Z 19016KT 26/15 A2996 RMK A01 T02580148  RH  050%=      5-min Rain = 0
KPA1 201330Z 19014KT 26/15 A2996 RMK A01 T02590148  RH  050%=      5-min Rain = 0
KPA1 201331Z 19015KT 26/15 A2996 RMK A01 T02590148  RH  050%=      5-min Rain = 0
KPA1 201332Z 19014KT 26/15 A2996 RMK A01 T02600150  RH  051%=      5-min Rain = 0
KPA1 201333Z 19017KT 26/15 A2996 RMK A01 T02610149  RH  050%=      5-min Rain = 0
KPA1 201334Z 19017KT 26/15 A2996 RMK A01 T02610148  RH  050%=      5-min Rain = 0
KPA1 201335Z 19014KT 26/15 A2996 RMK A01 T02620148  RH  050%=      5-min Rain = 0
KPA1 201336Z 20016KT 26/15 A2996 RMK A01 T02620150  RH  050%=      5-min Rain = 0
KPA1 201337Z 19015KT 26/15 A2996 RMK A01 T02620149  RH  050%=      5-min Rain = 0
KPA1 201338Z 20013KT 26/15 A2996 RMK A01 T02630151  RH  050%=      5-min Rain = 0
KPA1 201339Z 20016KT 26/15 A2996 RMK A01 T02640150  RH  050%=      5-min Rain = 0
KPA1 201340Z 20016KT 26/15 A2996 RMK A01 T02640148  RH  049%=      5-min Rain = 0
KPA1 201341Z 19015KT 26/15 A2996 RMK A01 T02640148  RH  049%=      5-min Rain = 0
KPA1 201342Z 19017KT 26/15 A2996 RMK A01 T02640147  RH  049%=      5-min Rain = 0
KPA1 201343Z 20014KT 26/15 A2996 RMK A01 T02640148  RH  049%=      5-min Rain = 0
KPA1 201344Z 20017KT 27/15 A2996 RMK A01 T02650150  RH  049%=      5-min Rain = 0
KPA1 201345Z 19015KT 27/15 A2996 RMK A01 T02650149  RH  049%=      5-min Rain = 0
KPA1 201346Z 20019KT 27/15 A2996 RMK A01 T02650148  RH  048%=      5-min Rain = 0
KPA1 201347Z 20017G23KT 27/15 A2996 RMK A01 T02650146  RH  048%=      5-min Rain = 0
KPA1 201348Z 19016KT 27/15 A2996 RMK A01 T02660149  RH  049%=      5-min Rain = 0
KPA1 201349Z 20013G18KT 27/15 A2996 RMK A01 T02660151  RH  049%=      5-min Rain = 0
KPA1 201350Z 20016KT 27/15 A2996 RMK A01 T02670151  RH  049%=      5-min Rain = 0
KPA1 201351Z 20017G24KT 27/15 A2996 RMK A01 T02670149  RH  048%=      5-min Rain = 0
KPA1 201352Z 19020G25KT 27/15 A2996 RMK A01 T02670147  RH  048%=      5-min Rain = 0
KPA1 201353Z 20021KT 27/15 A2996 RMK A01 T02680146  RH  047%=      5-min Rain = 0
KPA1 201354Z 20018KT 27/15 A2996 RMK A01 T02680147  RH  047%=      5-min Rain = 0
KPA1 201355Z 19019G24KT 27/15 A2996 RMK A01 T02680147  RH  047%=      5-min Rain = 0
KPA1 201356Z 20017G24KT 27/15 A2996 RMK A01 T02680148  RH  048%=      5-min Rain = 0
KPA1 201357Z 20018G24KT 27/15 A2996 RMK A01 T02690148  RH  048%=      5-min Rain = 0
KPA1 201358Z 20014KT 27/15 A2996 RMK A01 T02690150  RH  048%=      5-min Rain = 0
KPA1 201359Z 20017KT 27/15 A2996 RMK A01 T02690151  RH  048%=      5-min Rain = 0
KPA1 201400Z 20020KT 27/15 A2996 RMK A01 T02690149  RH  048%=      5-min Rain = 0
KPA1 201401Z 19018KT 27/15 A2996 RMK A01 T02690149  RH  048%=      5-min Rain = 0
KPA1 201402Z 20020KT 27/15 A2996 RMK A01 T02690148  RH  047%=      5-min Rain = 0
KPA1 201403Z 20020KT 27/15 A2996 RMK A01 T02700147  RH  047%=      5-min Rain = 0
KPA1 201404Z 20018KT 27/15 A2996 RMK A01 T02700147  RH  047%=      5-min Rain = 0
KPA1 201405Z 20021KT 27/15 A2996 RMK A01 T02700148  RH  047%=      5-min Rain = 0
KPA1 201406Z 19019G24KT 27/15 A2996 RMK A01 T02700148  RH  047%=      5-min Rain = 0
KPA1 201407Z 20018G23KT 27/15 A2996 RMK A01 T02710149  RH  047%=      5-min Rain = 0
KPA1 201408Z 20020KT 27/15 A2996 RMK A01 T02710149  RH  047%=      5-min Rain = 0
KPA1 201409Z 19017KT 27/15 A2996 RMK A01 T02710148  RH  047%=      5-min Rain = 0
KPA1 201410Z 20017KT 27/15 A2996 RMK A01 T02720150  RH  047%=      5-min Rain = 0
KPA1 201411Z 20016KT 27/15 A2996 RMK A01 T02730151  RH  047%=      5-min Rain = 0
KPA1 201412Z 20017G22KT 27/15 A2996 RMK A01 T02730150  RH  047%=      5-min Rain = 0
KPA1 201413Z 19016KT 27/15 A2996 RMK A01 T02740151  RH  047%=      5-min Rain = 0
KPA1 201414Z 20017KT 28/15 A2996 RMK A01 T02750152  RH  047%=      5-min Rain = 0
KPA1 201415Z 20016KT 28/15 A2996 RMK A01 T02750151  RH  047%=      5-min Rain = 0
KPA1 201416Z 20019KT 28/15 A2996 RMK A01 T02750150  RH  046%=      5-min Rain = 0
KPA1 201417Z 20016G21KT 28/15 A2996 RMK A01 T02750151  RH  047%=      5-min Rain = 0
KPA1 201418Z 20020KT 28/15 A2995 RMK A01 T02750149  RH  046%=      5-min Rain = 0
KPA1 201419Z 20018G23KT 28/15 A2995 RMK A01 T02750149  RH  046%=      5-min Rain = 0
KPA1 201420Z 20021KT 28/15 A2995 RMK A01 T02750149  RH  046%=      5-min Rain = 0
KPA1 201421Z 20021KT 28/15 A2995 RMK A01 T02750149  RH  046%=      5-min Rain = 0
KPA1 201422Z 20018KT 28/15 A2995 RMK A01 T02750150  RH  046%=      5-min Rain = 0
KPA1 201423Z 19020KT 28/15 A2995 RMK A01 T02750149  RH  046%=      5-min Rain = 0
KPA1 201424Z 20020KT 28/15 A2995 RMK A01 T02760150  RH  046%=      5-min Rain = 0
KPA1 201425Z 20019KT 28/15 A2995 RMK A01 T02770150  RH  046%=      5-min Rain = 0
KPA1 201426Z 20018G24KT 28/15 A2995 RMK A01 T02770149  RH  046%=      5-min Rain = 0
KPA1 201427Z 21018G23KT 28/15 A2995 RMK A01 T02770152  RH  046%=      5-min Rain = 0
KPA1 201428Z 20020G25KT 28/15 A2995 RMK A01 T02780151  RH  046%=      5-min Rain = 0
KPA1 201429Z 20022KT 28/15 A2995 RMK A01 T02780151  RH  046%=      5-min Rain = 0
KPA1 201430Z 20023KT 28/15 A2995 RMK A01 T02780150  RH  046%=      5-min Rain = 0
KPA1 201431Z 20022KT 28/15 A2995 RMK A01 T02770149  RH  045%=      5-min Rain = 0
KPA1 201432Z 20023KT 28/15 A2995 RMK A01 T02760149  RH  046%=      5-min Rain = 0
KPA1 201433Z 19022KT 28/15 A2995 RMK A01 T02770148  RH  045%=      5-min Rain = 0
KPA1 201434Z 19022KT 28/15 A2995 RMK A01 T02770149  RH  046%=      5-min Rain = 0
KPA1 201435Z 20022KT 28/15 A2995 RMK A01 T02780149  RH  045%=      5-min Rain = 0
KPA1 201436Z 20019G25KT 28/15 A2995 RMK A01 T02780150  RH  045%=      5-min Rain = 0
KPA1 201437Z 20019G24KT 28/15 A2995 RMK A01 T02790152  RH  046%=      5-min Rain = 0
KPA1 201438Z 20020G25KT 28/15 A2995 RMK A01 T02800150  RH  045%=      5-min Rain = 0
KPA1 201439Z 20020G25KT 28/15 A2995 RMK A01 T02800153  RH  046%=      5-min Rain = 0
KPA1 201440Z 20022G27KT 28/15 A2995 RMK A01 T02800150  RH  045%=      5-min Rain = 0
KPA1 201441Z 20020KT 28/15 A2995 RMK A01 T02800150  RH  045%=      5-min Rain = 0
KPA1 201442Z 19019KT 28/15 A2995 RMK A01 T02790151  RH  045%=      5-min Rain = 0
KPA1 201443Z 20017KT 28/15 A2995 RMK A01 T02800151  RH  045%=      5-min Rain = 0
KPA1 201444Z 20020KT 28/15 A2995 RMK A01 T02800151  RH  045%=      5-min Rain = 0
KPA1 201445Z 20018KT 28/15 A2996 RMK A01 T02810151  RH  045%=      5-min Rain = 0
KPA1 201446Z 20018G23KT 28/15 A2995 RMK A01 T02820152  RH  045%=      5-min Rain = 0
KPA1 201447Z 20017KT 28/16 A2996 RMK A01 T02830155  RH  046%=      5-min Rain = 0
KPA1 201448Z 20017KT 28/15 A2995 RMK A01 T02840153  RH  045%=      5-min Rain = 0
KPA1 201449Z 19015KT 28/16 A2995 RMK A01 T02830155  RH  046%=      5-min Rain = 0
KPA1 201450Z 19017KT 28/16 A2995 RMK A01 T02840155  RH  045%=      5-min Rain = 0
KPA1 201451Z 19018KT 28/15 A2995 RMK A01 T02840153  RH  045%=      5-min Rain = 0
KPA1 201452Z 19017G22KT 29/15 A2995 RMK A01 T02850153  RH  045%=      5-min Rain = 0
KPA1 201453Z 19016KT 29/16 A2995 RMK A01 T02860155  RH  045%=      5-min Rain = 0
KPA1 201454Z 19018G24KT 29/16 A2995 RMK A01 T02870155  RH  045%=      5-min Rain = 0
KPA1 201455Z 19021KT 29/15 A2995 RMK A01 T02870152  RH  044%=      5-min Rain = 0
KPA1 201456Z 19019G24KT 29/15 A2995 RMK A01 T02860151  RH  044%=      5-min Rain = 0
KPA1 201457Z 20016KT 29/15 A2995 RMK A01 T02860153  RH  044%=      5-min Rain = 0
KPA1 201458Z 20017KT 29/15 A2995 RMK A01 T02860154  RH  045%=      5-min Rain = 0
KPA1 201459Z 19018KT 29/15 A2995 RMK A01 T02860153  RH  044%=      5-min Rain = 0
KPA1 201500Z 20017KT 29/15 A2995 RMK A01 T02870152  RH  044%=      5-min Rain = 0
KPA1 201501Z 19016G24KT 29/16 A2995 RMK A01 T02880157  RH  045%=      5-min Rain = 0
KPA1 201502Z 20019KT 29/16 A2995 RMK A01 T02890155  RH  044%=      5-min Rain = 0
KPA1 201503Z 20018KT 29/15 A2995 RMK A01 T02890153  RH  044%=      5-min Rain = 0
KPA1 201504Z 20019KT 29/15 A2995 RMK A01 T02890153  RH  044%=      5-min Rain = 0
KPA1 201505Z 20017G22KT 29/16 A2995 RMK A01 T02900155  RH  044%=      5-min Rain = 0
KPA1 201506Z 20019KT 29/16 A2995 RMK A01 T02890155  RH  044%=      5-min Rain = 0
KPA1 201507Z 20019KT 29/15 A2995 RMK A01 T02890154  RH  044%=      5-min Rain = 0
KPA1 201508Z 20018KT 29/15 A2995 RMK A01 T02900154  RH  044%=      5-min Rain = 0
KPA1 201509Z 20018KT 29/16 A2995 RMK A01 T02900155  RH  044%=      5-min Rain = 0
KPA1 201510Z 20017KT 29/16 A2995 RMK A01 T02900155  RH  044%=      5-min Rain = 0
KPA1 201511Z 19015KT 29/16 A2995 RMK A01 T02900157  RH  045%=      5-min Rain = 0
KPA1 201512Z 19018KT 29/16 A2995 RMK A01 T02920158  RH  044%=      5-min Rain = 0
KPA1 201513Z 19020KT 29/15 A2995 RMK A01 T02920154  RH  043%=      5-min Rain = 0
KPA1 201514Z 20017G22KT 29/15 A2995 RMK A01 T02920154  RH  043%=      5-min Rain = 0
KPA1 201515Z 20018KT 29/16 A2995 RMK A01 T02920156  RH  043%=      5-min Rain = 0
KPA1 201516Z 19018KT 29/16 A2995 RMK A01 T02930155  RH  043%=      5-min Rain = 0
KPA1 201517Z 18018KT 29/15 A2995 RMK A01 T02930154  RH  043%=      5-min Rain = 0
KPA1 201518Z 18016G22KT 29/16 A2995 RMK A01 T02940155  RH  043%=      5-min Rain = 0
KPA1 201519Z 19014KT 30/16 A2995 RMK A01 T02960159  RH  044%=      5-min Rain = 0
KPA1 201520Z 19017KT 30/16 A2995 RMK A01 T02980157  RH  043%=      5-min Rain = 0
KPA1 201521Z 18015KT 30/16 A2995 RMK A01 T02980158  RH  043%=      5-min Rain = 0
KPA1 201522Z 18019KT 30/16 A2995 RMK A01 T02980157  RH  043%=      5-min Rain = 0
KPA1 201523Z 18021KT 30/15 A2995 RMK A01 T02980154  RH  042%=      5-min Rain = 0
KPA1 201524Z 19019KT 30/15 A2995 RMK A01 T02970154  RH  042%=      5-min Rain = 0
KPA1 201525Z 18018KT 30/16 A2995 RMK A01 T02970155  RH  042%=      5-min Rain = 0
KPA1 201526Z 19018KT 30/15 A2995 RMK A01 T02970154  RH  042%=      5-min Rain = 0
KPA1 201527Z 19020KT 30/15 A2995 RMK A01 T02980154  RH  042%=      5-min Rain = 0
KPA1 201528Z 19019KT 30/15 A2995 RMK A01 T02970154  RH  042%=      5-min Rain = 0
KPA1 201529Z 19018KT 30/15 A2995 RMK A01 T02960154  RH  042%=      5-min Rain = 0
KPA1 201530Z 19015KT 30/16 A2995 RMK A01 T02970155  RH  042%=      5-min Rain = 0
KPA1 201531Z 19015KT 30/16 A2995 RMK A01 T02980160  RH  043%=      5-min Rain = 0
KPA1 201532Z 18016KT 30/16 A2995 RMK A01 T03010159  RH  042%=      5-min Rain = 0
KPA1 201533Z 19015KT 30/16 A2995 RMK A01 T03020157  RH  042%=      5-min Rain = 0
KPA1 201534Z 19016KT 30/16 A2995 RMK A01 T03020157  RH  041%=      5-min Rain = 0
KPA1 201535Z 18013KT 30/16 A2995 RMK A01 T03020159  RH  042%=      5-min Rain = 0
KPA1 201536Z 18019KT 30/16 A2995 RMK A01 T03040160  RH  042%=      5-min Rain = 0
KPA1 201537Z 19016KT 30/16 A2995 RMK A01 T03040156  RH  041%=      5-min Rain = 0
KPA1 201538Z 19018KT 30/16 A2995 RMK A01 T03040155  RH  041%=      5-min Rain = 0
KPA1 201539Z 18015KT 30/16 A2995 RMK A01 T03030155  RH  041%=      5-min Rain = 0
KPA1 201540Z 19014G19KT 31/16 A2995 RMK A01 T03050157  RH  041%=      5-min Rain = 0
KPA1 201541Z 19013KT 31/16 A2995 RMK A01 T03050160  RH  042%=      5-min Rain = 0
KPA1 201542Z 18012KT 31/16 A2995 RMK A01 T03070164  RH  042%=      5-min Rain = 0
KPA1 201543Z 18013KT 31/16 A2995 RMK A01 T03090163  RH  041%=      5-min Rain = 0
KPA1 201544Z 18016KT 31/16 A2995 RMK A01 T03100160  RH  040%=      5-min Rain = 0
KPA1 201545Z 19018KT 31/16 A2995 RMK A01 T03090157  RH  040%=      5-min Rain = 0
KPA1 201546Z 18016KT 31/16 A2995 RMK A01 T03070157  RH  040%=      5-min Rain = 0
KPA1 201547Z 18014KT 31/16 A2995 RMK A01 T03080160  RH  041%=      5-min Rain = 0
KPA1 201548Z 18016KT 31/16 A2995 RMK A01 T03100158  RH  040%=      5-min Rain = 0
KPA1 201549Z 19013KT 31/16 A2995 RMK A01 T03110161  RH  040%=      5-min Rain = 0
KPA1 201550Z 19013KT 31/17 A2995 RMK A01 T03110166  RH  042%=      5-min Rain = 0
KPA1 201551Z 18014KT 31/16 A2995 RMK A01 T03110163  RH  041%=      5-min Rain = 0
KPA1 201552Z 19016G21KT 31/16 A2995 RMK A01 T03120160  RH  040%=      5-min Rain = 0
KPA1 201553Z 20015KT 31/16 A2995 RMK A01 T03110162  RH  041%=      5-min Rain = 0
KPA1 201554Z 20016KT 31/16 A2995 RMK A01 T03100158  RH  040%=      5-min Rain = 0
KPA1 201555Z 18013KT 31/16 A2995 RMK A01 T03080161  RH  041%=      5-min Rain = 0
KPA1 201556Z 19016KT 31/16 A2995 RMK A01 T03090161  RH  041%=      5-min Rain = 0
KPA1 201557Z 19017KT 31/16 A2995 RMK A01 T03090158  RH  040%=      5-min Rain = 0
KPA1 201558Z 19016KT 31/16 A2995 RMK A01 T03090161  RH  041%=      5-min Rain = 0
KPA1 201559Z 20016G21KT 31/16 A2995 RMK A01 T03090159  RH  040%=      5-min Rain = 0
KPA1 201600Z 19018KT 31/16 A2995 RMK A01 T03090160  RH  040%=      5-min Rain = 0
KPA1 201601Z 20016KT 31/16 A2995 RMK A01 T03100159  RH  040%=      5-min Rain = 0
KPA1 201602Z 20017KT 31/16 A2995 RMK A01 T03090158  RH  040%=      5-min Rain = 0
KPA1 201603Z 20017KT 31/16 A2995 RMK A01 T03090158  RH  040%=      5-min Rain = 0
KPA1 201604Z 20017KT 31/16 A2995 RMK A01 T03100160  RH  041%=      5-min Rain = 0
KPA1 201605Z 20015KT 31/16 A2995 RMK A01 T03100161  RH  041%=      5-min Rain = 0
KPA1 201606Z 20014KT 31/16 A2995 RMK A01 T03110161  RH  041%=      5-min Rain = 0
KPA1 201607Z 19016G21KT 31/16 A2995 RMK A01 T03110161  RH  040%=      5-min Rain = 0
KPA1 201608Z 20017KT 31/16 A2995 RMK A01 T03120162  RH  040%=      5-min Rain = 0
KPA1 201609Z 19014KT 31/16 A2995 RMK A01 T03130163  RH  040%=      5-min Rain = 0
KPA1 201610Z 19014KT 31/16 A2995 RMK A01 T03130162  RH  040%=      5-min Rain = 0
KPA1 201611Z 20013KT 31/17 A2995 RMK A01 T03130166  RH  041%=      5-min Rain = 0
KPA1 201612Z 20016KT 31/16 A2995 RMK A01 T03140163  RH  040%=      5-min Rain = 0
KPA1 201613Z 20017KT 31/16 A2995 RMK A01 T03140160  RH  039%=      5-min Rain = 0
KPA1 201614Z 19017KT 31/16 A2995 RMK A01 T03140157  RH  039%=      5-min Rain = 0
KPA1 201615Z 20017KT 31/16 A2995 RMK A01 T03140160  RH  040%=      5-min Rain = 0
KPA1 201616Z 20014KT 31/16 A2995 RMK A01 T03130161  RH  040%=      5-min Rain = 0
KPA1 201617Z 19011KT 31/16 A2995 RMK A01 T03140164  RH  041%=      5-min Rain = 0
KPA1 201618Z 18014KT 32/16 A2995 RMK A01 T03160164  RH  040%=      5-min Rain = 0
KPA1 201619Z 19016KT 32/16 A2995 RMK A01 T03180161  RH  039%=      5-min Rain = 0
KPA1 201620Z 19014KT 32/16 A2995 RMK A01 T03190160  RH  038%=      5-min Rain = 0
KPA1 201621Z 18011KT 32/17 A2995 RMK A01 T03180165  RH  040%=      5-min Rain = 0
KPA1 201622Z 19013KT 32/16 A2995 RMK A01 T03190163  RH  039%=      5-min Rain = 0
KPA1 201623Z 18012KT 32/17 A2995 RMK A01 T03200165  RH  039%=      5-min Rain = 0
KPA1 201624Z 19016KT 32/16 A2995 RMK A01 T03220164  RH  039%=      5-min Rain = 0
KPA1 201625Z 20014KT 32/16 A2995 RMK A01 T03210161  RH  038%=      5-min Rain = 0
KPA1 201626Z 18013KT 32/16 A2995 RMK A01 T03190163  RH  039%=      5-min Rain = 0
KPA1 201627Z 18012KT 32/16 A2995 RMK A01 T03180162  RH  039%=      5-min Rain = 0
KPA1 201628Z 17012KT 32/16 A2995 RMK A01 T03180162  RH  039%=      5-min Rain = 0
KPA1 201629Z 18010KT 32/16 A2995 RMK A01 T03200164  RH  039%=      5-min Rain = 0
KPA1 201630Z 18016KT 32/16 A2995 RMK A01 T03220163  RH  039%=      5-min Rain = 0
KPA1 201631Z 18013KT 32/16 A2995 RMK A01 T03220162  RH  038%=      5-min Rain = 0
KPA1 201632Z 18012KT 32/16 A2995 RMK A01 T03230163  RH  038%=      5-min Rain = 0
KPA1 201633Z 19013KT 33/16 A2995 RMK A01 T03250163  RH  038%=      5-min Rain = 0
KPA1 201634Z 18014KT 32/16 A2995 RMK A01 T03240164  RH  038%=      5-min Rain = 0
KPA1 201635Z 18013KT 32/16 A2995 RMK A01 T03240164  RH  038%=      5-min Rain = 0
KPA1 201636Z 18010KT 33/17 A2995 RMK A01 T03250167  RH  039%=      5-min Rain = 0
KPA1 201637Z 18012KT 33/17 A2995 RMK A01 T03280166  RH  038%=      5-min Rain = 0
KPA1 201638Z 18012KT 33/16 A2995 RMK A01 T03290162  RH  037%=      5-min Rain = 0
KPA1 201639Z 18011KT 33/16 A2995 RMK A01 T03280164  RH  037%=      5-min Rain = 0
KPA1 201640Z 19012KT 33/17 A2995 RMK A01 T03260165  RH  038%=      5-min Rain = 0
KPA1 201641Z 19011KT 33/17 A2995 RMK A01 T03260165  RH  038%=      5-min Rain = 0
KPA1 201642Z 20011KT 33/17 A2995 RMK A01 T03270165  RH  038%=      5-min Rain = 0
KPA1 201643Z 19010KT 33/17 A2995 RMK A01 T03260166  RH  038%=      5-min Rain = 0
KPA1 201644Z 19014KT 33/17 A2995 RMK A01 T03250165  RH  038%=      5-min Rain = 0
KPA1 201645Z 19012KT 32/16 A2995 RMK A01 T03240162  RH  038%=      5-min Rain = 0
KPA1 201646Z 20011KT 32/16 A2995 RMK A01 T03240163  RH  038%=      5-min Rain = 0
KPA1 201647Z 20012KT 33/17 A2995 RMK A01 T03250166  RH  039%=      5-min Rain = 0
KPA1 201648Z 18013KT 32/16 A2995 RMK A01 T03240161  RH  037%=      5-min Rain = 0
KPA1 201649Z 18013KT 32/16 A2995 RMK A01 T03230160  RH  038%=      5-min Rain = 0
KPA1 201650Z 18013KT 32/16 A2995 RMK A01 T03240161  RH  037%=      5-min Rain = 0
KPA1 201651Z 19012KT 33/16 A2995 RMK A01 T03250162  RH  038%=      5-min Rain = 0
KPA1 201652Z 20013KT 33/17 A2995 RMK A01 T03250165  RH  038%=      5-min Rain = 0
KPA1 201653Z 20013KT 32/16 A2995 RMK A01 T03240163  RH  038%=      5-min Rain = 0
KPA1 201654Z 19011KT 32/17 A2995 RMK A01 T03230166  RH  039%=      5-min Rain = 0
KPA1 201655Z 18014KT 32/17 A2995 RMK A01 T03240167  RH  039%=      5-min Rain = 0
KPA1 201656Z 19012KT 33/16 A2996 RMK A01 T03260164  RH  038%=      5-min Rain = 0
KPA1 201657Z 19012KT 33/17 A2996 RMK A01 T03270167  RH  038%=      5-min Rain = 0
KPA1 201658Z 19010KT 33/17 A2996 RMK A01 T03270166  RH  038%=      5-min Rain = 0
KPA1 201659Z 18012KT 33/17 A2996 RMK A01 T03280166  RH  038%=      5-min Rain = 0
KPA1 201700Z 19013KT 33/16 A2996 RMK A01 T03280164  RH  038%=      5-min Rain = 0
KPA1 201701Z 19014KT 33/17 A2996 RMK A01 T03290165  RH  038%=      5-min Rain = 0
KPA1 201702Z 18010G15KT 33/17 A2996 RMK A01 T03280165  RH  038%=      5-min Rain = 0
KPA1 201703Z 18010KT 33/17 A2995 RMK A01 T03300170  RH  038%=      5-min Rain = 0
KPA1 201704Z 18013KT 33/17 A2995 RMK A01 T03340167  RH  037%=      5-min Rain = 0
KPA1 201705Z 18014KT 33/17 A2995 RMK A01 T03340167  RH  037%=      5-min Rain = 0
KPA1 201706Z 18012KT 33/17 A2995 RMK A01 T03340169  RH  037%=      5-min Rain = 0
KPA1 201707Z 18011G16KT 33/17 A2995 RMK A01 T03340169  RH  037%=      5-min Rain = 0
KPA1 201708Z 17012KT 34/17 A2995 RMK A01 T03350168  RH  037%=      5-min Rain = 0
KPA1 201709Z 18013KT 33/17 A2995 RMK A01 T03340171  RH  038%=      5-min Rain = 0
KPA1 201710Z 18017KT 33/17 A2995 RMK A01 T03340166  RH  037%=      5-min Rain = 0
KPA1 201711Z 17015KT 33/17 A2995 RMK A01 T03330165  RH  037%=      5-min Rain = 0
KPA1 201712Z 18014KT 33/16 A2995 RMK A01 T03330164  RH  037%=      5-min Rain = 0
KPA1 201713Z 17014KT 33/17 A2995 RMK A01 T03340170  RH  037%=      5-min Rain = 0
KPA1 201714Z 17014KT 34/16 A2995 RMK A01 T03370164  RH  036%=      5-min Rain = 0
KPA1 201715Z 16013KT 34/17 A2995 RMK A01 T03360165  RH  036%=      5-min Rain = 0
KPA1 201716Z 17012KT 34/17 A2995 RMK A01 T03370165  RH  036%=      5-min Rain = 0
KPA1 201717Z 18018KT 34/17 A2995 RMK A01 T03380166  RH  036%=      5-min Rain = 0
KPA1 201718Z 17016KT 34/16 A2995 RMK A01 T03380162  RH  035%=      5-min Rain = 0
KPA1 201719Z 17015KT 34/16 A2995 RMK A01 T03350160  RH  035%=      5-min Rain = 0
KPA1 201720Z 17017KT 33/16 A2995 RMK A01 T03340163  RH  036%=      5-min Rain = 0
KPA1 201721Z 17015KT 34/16 A2995 RMK A01 T03350163  RH  036%=      5-min Rain = 0
KPA1 201722Z 18013KT 34/17 A2995 RMK A01 T03370166  RH  036%=      5-min Rain = 0
KPA1 201723Z 19014KT 34/17 A2995 RMK A01 T03390168  RH  036%=      5-min Rain = 0
KPA1 201724Z 18015KT 34/17 A2995 RMK A01 T03380167  RH  036%=      5-min Rain = 0
KPA1 201725Z 18014KT 34/17 A2995 RMK A01 T03370168  RH  037%=      5-min Rain = 0
KPA1 201726Z 17012KT 34/17 A2995 RMK A01 T03370168  RH  037%=      5-min Rain = 0
KPA1 201727Z 18014KT 34/17 A2995 RMK A01 T03380168  RH  036%=      5-min Rain = 0
KPA1 201728Z 17014G20KT 34/17 A2995 RMK A01 T03390167  RH  036%=      5-min Rain = 0
KPA1 201729Z 18017G22KT 34/17 A2995 RMK A01 T03400165  RH  035%=      5-min Rain = 0
KPA1 201730Z 18015KT 34/16 A2995 RMK A01 T03390164  RH  035%=      5-min Rain = 0
KPA1 201731Z 18016KT 34/17 A2995 RMK A01 T03380166  RH  036%=      5-min Rain = 0
KPA1 201732Z 19013KT 34/17 A2995 RMK A01 T03370170  RH  037%=      5-min Rain = 0
KPA1 201733Z 18014KT 34/17 A2995 RMK A01 T03380169  RH  037%=      5-min Rain = 0
KPA1 201734Z 19012KT 34/17 A2995 RMK A01 T03380168  RH  036%=      5-min Rain = 0
KPA1 201735Z 18015KT 34/17 A2994 RMK A01 T03390171  RH  037%=      5-min Rain = 0
KPA1 201736Z 19013KT 34/17 A2995 RMK A01 T03430170  RH  036%=      5-min Rain = 0
KPA1 201737Z 18016KT 35/17 A2994 RMK A01 T03450168  RH  035%=      5-min Rain = 0
KPA1 201738Z 18015KT 34/17 A2995 RMK A01 T03430166  RH  035%=      5-min Rain = 0
KPA1 201739Z 19012KT 34/17 A2995 RMK A01 T03430167  RH  035%=      5-min Rain = 0
KPA1 201740Z 20012G18KT 35/18 A2994 RMK A01 T03450177  RH  037%=      5-min Rain = 0
KPA1 201741Z 19015KT 35/17 A2994 RMK A01 T03460173  RH  036%=      5-min Rain = 0
KPA1 201742Z 19014KT 34/17 A2994 RMK A01 T03440168  RH  035%=      5-min Rain = 0
KPA1 201743Z 18013KT 34/17 A2994 RMK A01 T03430168  RH  035%=      5-min Rain = 0
KPA1 201744Z 19017KT 34/17 A2994 RMK A01 T03440170  RH  035%=      5-min Rain = 0
KPA1 201745Z 19014KT 34/17 A2994 RMK A01 T03440169  RH  035%=      5-min Rain = 0
KPA1 201746Z 19016KT 34/17 A2994 RMK A01 T03430173  RH  036%=      5-min Rain = 0
KPA1 201747Z 18015KT 34/17 A2994 RMK A01 T03430170  RH  036%=      5-min Rain = 0
KPA1 201748Z 19016KT 34/17 A2994 RMK A01 T03420168  RH  035%=      5-min Rain = 0
KPA1 201749Z 18013KT 34/17 A2994 RMK A01 T03430170  RH  036%=      5-min Rain = 0
KPA1 201750Z 18017KT 35/17 A2994 RMK A01 T03460169  RH  035%=      5-min Rain = 0
KPA1 201751Z 19015KT 35/17 A2994 RMK A01 T03470169  RH  035%=      5-min Rain = 0
KPA1 201752Z 19015KT 35/17 A2994 RMK A01 T03460167  RH  035%=      5-min Rain = 0
KPA1 201753Z 19013KT 34/17 A2994 RMK A01 T03440169  RH  035%=      5-min Rain = 0
KPA1 201754Z 17015G21KT 35/17 A2994 RMK A01 T03450168  RH  035%=      5-min Rain = 0
KPA1 201755Z 17015KT 35/16 A2994 RMK A01 T03470162  RH  033%=      5-min Rain = 0
KPA1 201756Z 18011KT 35/17 A2994 RMK A01 T03460167  RH  035%=      5-min Rain = 0
KPA1 201757Z 18014KT 35/17 A2994 RMK A01 T03500170  RH  034%=      5-min Rain = 0
KPA1 201758Z 18013KT 35/17 A2994 RMK A01 T03510169  RH  034%=      5-min Rain = 0
KPA1 201759Z 17012G17KT 35/17 A2994 RMK A01 T03490173  RH  035%=      5-min Rain = 0
KPA1 201800Z 16016G21KT 35/17 A2994 RMK A01 T03500171  RH  035%=      5-min Rain = 0
KPA1 201801Z 17015KT 35/17 A2994 RMK A01 T03520168  RH  034%=      5-min Rain = 0
KPA1 201802Z 17015KT 35/17 A2994 RMK A01 T03510167  RH  034%=      5-min Rain = 0
KPA1 201803Z 17014KT 35/17 A2994 RMK A01 T03480169  RH  035%=      5-min Rain = 0
KPA1 201804Z 18014KT 35/17 A2994 RMK A01 T03490170  RH  035%=      5-min Rain = 0
KPA1 201805Z 16016KT 35/17 A2994 RMK A01 T03500169  RH  034%=      5-min Rain = 0
KPA1 201806Z 16016KT 35/17 A2994 RMK A01 T03490170  RH  035%=      5-min Rain = 0
KPA1 201807Z 18016KT 35/17 A2994 RMK A01 T03480169  RH  035%=      5-min Rain = 0
KPA1 201808Z 18013KT 35/17 A2994 RMK A01 T03490169  RH  034%=      5-min Rain = 0
KPA1 201809Z 18015KT 35/17 A2994 RMK A01 T03520171  RH  034%=      5-min Rain = 0
KPA1 201810Z 17015KT 35/17 A2994 RMK A01 T03520171  RH  034%=      5-min Rain = 0
KPA1 201811Z 17014KT 35/17 A2994 RMK A01 T03520171  RH  034%=      5-min Rain = 0
KPA1 201812Z 17015KT 35/17 A2994 RMK A01 T03540173  RH  034%=      5-min Rain = 0
KPA1 201813Z 17013G18KT 35/17 A2993 RMK A01 T03540173  RH  034%=      5-min Rain = 0
KPA1 201814Z 16016KT 36/17 A2993 RMK A01 T03560173  RH  034%=      5-min Rain = 0
KPA1 201815Z 16017KT 36/17 A2993 RMK A01 T03550173  RH  034%=      5-min Rain = 0
KPA1 201816Z 16019KT 35/17 A2993 RMK A01 T03540168  RH  033%=      5-min Rain = 0
KPA1 201817Z 15015KT 35/17 A2993 RMK A01 T03510170  RH  034%=      5-min Rain = 0
KPA1 201818Z 17014KT 35/17 A2993 RMK A01 T03500173  RH  035%=      5-min Rain = 0
KPA1 201819Z 17016KT 35/17 A2994 RMK A01 T03540174  RH  035%=      5-min Rain = 0
KPA1 201820Z 17015KT 36/17 A2994 RMK A01 T03560167  RH  033%=      5-min Rain = 0
KPA1 201821Z 16014KT 35/17 A2993 RMK A01 T03540165  RH  033%=      5-min Rain = 0
KPA1 201822Z 17016G21KT 35/17 A2993 RMK A01 T03540168  RH  033%=      5-min Rain = 0
KPA1 201823Z 18013KT 36/17 A2993 RMK A01 T03550170  RH  033%=      5-min Rain = 0
KPA1 201824Z 17017KT 36/17 A2993 RMK A01 T03570173  RH  034%=      5-min Rain = 0
KPA1 201825Z 17015KT 36/17 A2993 RMK A01 T03580167  RH  032%=      5-min Rain = 0
KPA1 201826Z 18017KT 36/17 A2993 RMK A01 T03580166  RH  032%=      5-min Rain = 0
KPA1 201827Z 18016KT 36/17 A2993 RMK A01 T03580165  RH  032%=      5-min Rain = 0
KPA1 201828Z 17017KT 36/16 A2993 RMK A01 T03580163  RH  032%=      5-min Rain = 0
KPA1 201829Z 17014KT 36/17 A2993 RMK A01 T03570165  RH  032%=      5-min Rain = 0
KPA1 201830Z 17016KT 36/16 A2993 RMK A01 T03570164  RH  032%=      5-min Rain = 0
KPA1 201831Z 18016KT 36/17 A2993 RMK A01 T03570169  RH  033%=      5-min Rain = 0
KPA1 201832Z 18017KT 36/17 A2993 RMK A01 T03590169  RH  033%=      5-min Rain = 0
KPA1 201833Z 18017KT 36/17 A2993 RMK A01 T03570165  RH  032%=      5-min Rain = 0
KPA1 201834Z 18017KT 36/17 A2993 RMK A01 T03560167  RH  032%=      5-min Rain = 0
KPA1 201835Z 19016KT 36/17 A2993 RMK A01 T03560173  RH  034%=      5-min Rain = 0
KPA1 201836Z 19013KT 36/17 A2993 RMK A01 T03560174  RH  034%=      5-min Rain = 0
KPA1 201837Z 19015KT 36/17 A2993 RMK A01 T03570173  RH  034%=      5-min Rain = 0
KPA1 201838Z 19018KT 36/17 A2993 RMK A01 T03570168  RH  033%=      5-min Rain = 0
KPA1 201839Z 19015KT 36/17 A2993 RMK A01 T03560170  RH  033%=      5-min Rain = 0
KPA1 201840Z 18018KT 36/17 A2993 RMK A01 T03560168  RH  033%=      5-min Rain = 0
KPA1 201841Z 18015KT 36/17 A2993 RMK A01 T03550165  RH  032%=      5-min Rain = 0
KPA1 201842Z 18014KT 36/17 A2993 RMK A01 T03570172  RH  034%=      5-min Rain = 0
KPA1 201843Z 19017KT 36/17 A2993 RMK A01 T03600169  RH  032%=      5-min Rain = 0
KPA1 201844Z 19016KT 36/16 A2993 RMK A01 T03600164  RH  031%=      5-min Rain = 0
KPA1 201845Z 18016KT 36/17 A2993 RMK A01 T03590166  RH  032%=      5-min Rain = 0
KPA1 201846Z 17019G24KT 36/17 A2993 RMK A01 T03590166  RH  032%=      5-min Rain = 0
KPA1 201847Z 18017KT 36/16 A2992 RMK A01 T03600160  RH  031%=      5-min Rain = 0
KPA1 201848Z 17014KT 36/16 A2992 RMK A01 T03600164  RH  031%=      5-min Rain = 0
KPA1 201849Z 16017KT 36/16 A2992 RMK A01 T03630162  RH  030%=      5-min Rain = 0
KPA1 201850Z 18017KT 37/16 A2992 RMK A01 T03650162  RH  030%=      5-min Rain = 0
KPA1 201851Z 17016KT 37/16 A2992 RMK A01 T03650161  RH  030%=      5-min Rain = 0
KPA1 201852Z 17017KT 36/16 A2992 RMK A01 T03630162  RH  030%=      5-min Rain = 0
KPA1 201853Z 17020KT 36/16 A2992 RMK A01 T03630162  RH  030%=      5-min Rain = 0
KPA1 201854Z 17017G22KT 36/16 A2992 RMK A01 T03620161  RH  030%=      5-min Rain = 0
KPA1 201855Z 16014G21KT 36/17 A2992 RMK A01 T03630166  RH  031%=      5-min Rain = 0
KPA1 201856Z 16019KT 37/16 A2992 RMK A01 T03670163  RH  030%=      5-min Rain = 0
KPA1 201857Z 15018KT 37/16 A2992 RMK A01 T03660162  RH  030%=      5-min Rain = 0
KPA1 201858Z 15018KT 36/16 A2992 RMK A01 T03640162  RH  030%=      5-min Rain = 0
KPA1 201859Z 15015KT 36/16 A2992 RMK A01 T03610161  RH  031%=      5-min Rain = 0
KPA1 201900Z 17017KT 36/16 A2992 RMK A01 T03610164  RH  031%=      5-min Rain = 0
KPA1 201901Z 16015G20KT 36/17 A2992 RMK A01 T03630165  RH  031%=      5-min Rain = 0
KPA1 201902Z 16017KT 37/16 A2992 RMK A01 T03660164  RH  030%=      5-min Rain = 0
KPA1 201903Z 16018G23KT 37/16 A2992 RMK A01 T03660162  RH  030%=      5-min Rain = 0
KPA1 201904Z 17015KT 37/16 A2992 RMK A01 T03650159  RH  030%=      5-min Rain = 0
KPA1 201905Z 17017KT 37/16 A2992 RMK A01 T03660160  RH  030%=      5-min Rain = 0
KPA1 201906Z 17016KT 37/16 A2992 RMK A01 T03660155  RH  029%=      5-min Rain = 0
KPA1 201907Z 17016KT 37/16 A2992 RMK A01 T03650156  RH  029%=      5-min Rain = 0
KPA1 201908Z 17019KT 37/16 A2992 RMK A01 T03650162  RH  030%=      5-min Rain = 0
KPA1 201909Z 18015G20KT 37/16 A2992 RMK A01 T03670163  RH  030%=      5-min Rain = 0
KPA1 201910Z 16014KT 37/17 A2992 RMK A01 T03680166  RH  030%=      5-min Rain = 0
KPA1 201911Z 16015KT 37/16 A2992 RMK A01 T03690162  RH  029%=      5-min Rain = 0
KPA1 201912Z 16017KT 37/16 A2992 RMK A01 T03690161  RH  029%=      5-min Rain = 0
KPA1 201913Z 17016G22KT 37/17 A2991 RMK A01 T03680165  RH  030%=      5-min Rain = 0
KPA1 201914Z 17014KT 37/16 A2992 RMK A01 T03690163  RH  030%=      5-min Rain = 0
KPA1 201915Z 18013KT 37/17 A2992 RMK A01 T03710168  RH  030%=      5-min Rain = 0
KPA1 201916Z 18018KT 37/17 A2992 RMK A01 T03730167  RH  030%=      5-min Rain = 0
KPA1 201917Z 17017KT 37/16 A2991 RMK A01 T03720158  RH  028%=      5-min Rain = 0
KPA1 201918Z 16017KT 37/16 A2991 RMK A01 T03690158  RH  029%=      5-min Rain = 0
KPA1 201919Z 16019KT 37/16 A2992 RMK A01 T03690158  RH  029%=      5-min Rain = 0
KPA1 201920Z 18017KT 37/16 A2992 RMK A01 T03680157  RH  029%=      5-min Rain = 0
KPA1 201921Z 18018KT 37/16 A2991 RMK A01 T03680156  RH  029%=      5-min Rain = 0
KPA1 201922Z 18019KT 37/16 A2991 RMK A01 T03690159  RH  029%=      5-min Rain = 0
KPA1 201923Z 18017KT 37/16 A2992 RMK A01 T03700162  RH  029%=      5-min Rain = 0
KPA1 201924Z 18016KT 37/16 A2992 RMK A01 T03710161  RH  029%=      5-min Rain = 0
KPA1 201925Z 19017KT 37/16 A2991 RMK A01 T03690160  RH  029%=      5-min Rain = 0
KPA1 201926Z 20014KT 37/16 A2991 RMK A01 T03680163  RH  030%=      5-min Rain = 0
KPA1 201927Z 19015KT 37/17 A2991 RMK A01 T03680167  RH  031%=      5-min Rain = 0
KPA1 201928Z 18017G22KT 37/17 A2991 RMK A01 T03690168  RH  031%=      5-min Rain = 0
KPA1 201929Z 18015KT 37/17 A2991 RMK A01 T03690165  RH  030%=      5-min Rain = 0
KPA1 201930Z 18014KT 37/16 A2991 RMK A01 T03680164  RH  030%=      5-min Rain = 0
KPA1 201931Z 18015KT 37/17 A2991 RMK A01 T03680165  RH  030%=      5-min Rain = 0
KPA1 201932Z 17016G22KT 37/16 A2991 RMK A01 T03700162  RH  029%=      5-min Rain = 0
KPA1 201933Z 16019G24KT 37/16 A2991 RMK A01 T03710157  RH  028%=      5-min Rain = 0
KPA1 201934Z 17015KT 37/16 A2991 RMK A01 T03710156  RH  028%=      5-min Rain = 0
KPA1 201935Z 17016KT 37/16 A2991 RMK A01 T03730158  RH  028%=      5-min Rain = 0
KPA1 201936Z 18016KT 38/16 A2991 RMK A01 T03760161  RH  028%=      5-min Rain = 0
KPA1 201937Z 18015KT 37/16 A2991 RMK A01 T03730161  RH  029%=      5-min Rain = 0
KPA1 201938Z 17015KT 37/16 A2991 RMK A01 T03720161  RH  029%=      5-min Rain = 0
KPA1 201939Z 17014KT 37/16 A2991 RMK A01 T03730164  RH  029%=      5-min Rain = 0
KPA1 201940Z 17015KT 38/17 A2991 RMK A01 T03760165  RH  029%=      5-min Rain = 0
KPA1 201941Z 17016G25KT 38/16 A2991 RMK A01 T03780163  RH  028%=      5-min Rain = 0
KPA1 201942Z 18016KT 38/16 A2991 RMK A01 T03780156  RH  027%=      5-min Rain = 0
KPA1 201943Z 17016KT 38/15 A2991 RMK A01 T03760154  RH  027%=      5-min Rain = 0
KPA1 201944Z 15017KT 38/16 A2991 RMK A01 T03750156  RH  027%=      5-min Rain = 0
KPA1 201945Z 15015KT 37/15 A2991 RMK A01 T03730154  RH  027%=      5-min Rain = 0
KPA1 201946Z 17017KT 37/16 A2991 RMK A01 T03720157  RH  028%=      5-min Rain = 0
KPA1 201947Z 18013KT 37/16 A2991 RMK A01 T03730159  RH  028%=      5-min Rain = 0
KPA1 201948Z 16014KT 38/16 A2991 RMK A01 T03750163  RH  029%=      5-min Rain = 0
KPA1 201949Z 16016KT 38/16 A2991 RMK A01 T03770161  RH  028%=      5-min Rain = 0
KPA1 201950Z 17018KT 38/16 A2991 RMK A01 T03770161  RH  028%=      5-min Rain = 0
KPA1 201951Z 17017G22KT 38/16 A2991 RMK A01 T03770159  RH  028%=      5-min Rain = 0
KPA1 201952Z 19019KT 38/16 A2991 RMK A01 T03780157  RH  027%=      5-min Rain = 0
KPA1 201953Z 19017KT 38/16 A2991 RMK A01 T03750159  RH  028%=      5-min Rain = 0
KPA1 201954Z 18017KT 37/16 A2991 RMK A01 T03710159  RH  029%=      5-min Rain = 0
KPA1 201955Z 17013KT 37/16 A2991 RMK A01 T03710160  RH  029%=      5-min Rain = 0
KPA1 201956Z 18013KT 38/16 A2991 RMK A01 T03750164  RH  029%=      5-min Rain = 0
KPA1 201957Z 17017KT 38/16 A2991 RMK A01 T03760162  RH  028%=      5-min Rain = 0
KPA1 201958Z 17014KT 38/16 A2991 RMK A01 T03750158  RH  028%=      5-min Rain = 0
KPA1 201959Z 18013G19KT 38/16 A2991 RMK A01 T03750164  RH  029%=      5-min Rain = 0
KPA1 202000Z 19014KT 38/17 A299 RMK A01 T03760168  RH  030%=      5-min Rain = 0
KPA1 202001Z 19015KT 37/17 A299 RMK A01 T03730171  RH  031%=      5-min Rain = 0
KPA1 202002Z 19015KT 37/16 A299 RMK A01 T03720162  RH  029%=      5-min Rain = 0
KPA1 202003Z 18016KT 37/17 A299 RMK A01 T03710165  RH  030%=      5-min Rain = 0
KPA1 202004Z 17018G23KT 37/16 A299 RMK A01 T03730159  RH  028%=      5-min Rain = 0
KPA1 202005Z 17016KT 38/15 A299 RMK A01 T03750149  RH  026%=      5-min Rain = 0
KPA1 202006Z 16017KT 38/15 A299 RMK A01 T03750149  RH  026%=      5-min Rain = 0
KPA1 202007Z 18020KT 38/15 A299 RMK A01 T03760152  RH  027%=      5-min Rain = 0
KPA1 202008Z 19016KT 38/16 A299 RMK A01 T03770156  RH  027%=      5-min Rain = 0
KPA1 202009Z 18016KT 38/16 A299 RMK A01 T03750155  RH  027%=      5-min Rain = 0
KPA1 202010Z 17016KT 37/15 A299 RMK A01 T03730152  RH  027%=      5-min Rain = 0
KPA1 202011Z 19015G22KT 37/16 A299 RMK A01 T03740158  RH  028%=      5-min Rain = 0
KPA1 202012Z 19018G23KT 38/16 A299 RMK A01 T03750163  RH  029%=      5-min Rain = 0
KPA1 202013Z 17020KT 37/16 A299 RMK A01 T03740160  RH  028%=      5-min Rain = 0
KPA1 202014Z 17016KT 37/15 A299 RMK A01 T03740154  RH  027%=      5-min Rain = 0
KPA1 202015Z 17017KT 37/15 A299 RMK A01 T03740154  RH  027%=      5-min Rain = 0
KPA1 202016Z 17016G21KT 37/16 A299 RMK A01 T03740155  RH  027%=      5-min Rain = 0
KPA1 202017Z 17014KT 38/16 A299 RMK A01 T03750158  RH  028%=      5-min Rain = 0
KPA1 202018Z 17015KT 38/16 A299 RMK A01 T03780160  RH  028%=      5-min Rain = 0
KPA1 202019Z 17015KT 38/16 A299 RMK A01 T03800156  RH  027%=      5-min Rain = 0
KPA1 202020Z 18015KT 38/16 A299 RMK A01 T03800162  RH  028%=      5-min Rain = 0
KPA1 202021Z 19015G20KT 38/16 A299 RMK A01 T03790162  RH  028%=      5-min Rain = 0
KPA1 202022Z 20016KT 38/16 A299 RMK A01 T03760158  RH  028%=      5-min Rain = 0
KPA1 202023Z 19012G18KT 38/16 A299 RMK A01 T03750163  RH  029%=      5-min Rain = 0
KPA1 202024Z 18016KT 38/16 A299 RMK A01 T03760164  RH  029%=      5-min Rain = 0
KPA1 202025Z 18018KT 38/16 A299 RMK A01 T03770159  RH  028%=      5-min Rain = 0
KPA1 202026Z 19017KT 38/16 A299 RMK A01 T03760157  RH  028%=      5-min Rain = 0
KPA1 202027Z 19016KT 38/16 A299 RMK A01 T03750157  RH  028%=      5-min Rain = 0
KPA1 202028Z 19019G25KT 37/16 A299 RMK A01 T03730156  RH  028%=      5-min Rain = 0
KPA1 202029Z 19019KT 37/16 A299 RMK A01 T03730159  RH  028%=      5-min Rain = 0
KPA1 202030Z 17017KT 37/16 A299 RMK A01 T03730156  RH  028%=      5-min Rain = 0
KPA1 202031Z 16015KT 37/16 A299 RMK A01 T03740156  RH  028%=      5-min Rain = 0
KPA1 202032Z 17014G19KT 38/16 A299 RMK A01 T03760157  RH  028%=      5-min Rain = 0
KPA1 202033Z 17014KT 38/16 A299 RMK A01 T03770158  RH  027%=      5-min Rain = 0
KPA1 202034Z 17012KT 38/15 A2989 RMK A01 T03780154  RH  027%=      5-min Rain = 0
KPA1 202035Z 17016KT 38/16 A2989 RMK A01 T03790156  RH  027%=      5-min Rain = 0
KPA1 202036Z 17019G25KT 38/15 A299 RMK A01 T03800151  RH  026%=      5-min Rain = 0
KPA1 202037Z 18016KT 38/15 A2989 RMK A01 T03810146  RH  025%=      5-min Rain = 0
KPA1 202038Z 19017G22KT 38/15 A299 RMK A01 T03790154  RH  027%=      5-min Rain = 0
KPA1 202039Z 19016KT 38/16 A299 RMK A01 T03790157  RH  027%=      5-min Rain = 0
KPA1 202040Z 19017KT 38/15 A299 RMK A01 T03780145  RH  025%=      5-min Rain = 0
KPA1 202041Z 19016KT 38/15 A299 RMK A01 T03770151  RH  026%=      5-min Rain = 0
KPA1 202042Z 18016KT 38/16 A299 RMK A01 T03760155  RH  027%=      5-min Rain = 0
KPA1 202043Z 17016KT 38/15 A299 RMK A01 T03760148  RH  026%=      5-min Rain = 0
KPA1 202044Z 17016KT 38/14 A299 RMK A01 T03780141  RH  025%=      5-min Rain = 0
KPA1 202045Z 18014KT 38/15 A2989 RMK A01 T03780147  RH  025%=      5-min Rain = 0
KPA1 202046Z 18015KT 38/15 A2989 RMK A01 T03780152  RH  026%=      5-min Rain = 0
KPA1 202047Z 18017KT 38/16 A299 RMK A01 T03800156  RH  027%=      5-min Rain = 0
KPA1 202048Z 18016KT 38/16 A299 RMK A01 T03810156  RH  026%=      5-min Rain = 0
KPA1 202049Z 19016KT 38/16 A299 RMK A01 T03800160  RH  027%=      5-min Rain = 0
KPA1 202050Z 19014KT 38/16 A299 RMK A01 T03780157  RH  027%=      5-min Rain = 0
KPA1 202051Z 19015KT 38/15 A299 RMK A01 T03770153  RH  027%=      5-min Rain = 0
KPA1 202052Z 19016KT 38/15 A299 RMK A01 T03760152  RH  027%=      5-min Rain = 0
KPA1 202053Z 18014KT 38/15 A299 RMK A01 T03760150  RH  026%=      5-min Rain = 0
KPA1 202054Z 19014KT 38/15 A2989 RMK A01 T03790152  RH  026%=      5-min Rain = 0
KPA1 202055Z 19013KT 38/15 A2989 RMK A01 T03780150  RH  026%=      5-min Rain = 0
KPA1 202056Z 18017KT 38/15 A2989 RMK A01 T03760152  RH  027%=      5-min Rain = 0
KPA1 202057Z 18016KT 38/15 A2989 RMK A01 T03760151  RH  026%=      5-min Rain = 0
KPA1 202058Z 19019KT 38/16 A2989 RMK A01 T03800160  RH  027%=      5-min Rain = 0
KPA1 202059Z 19018KT 38/16 A2989 RMK A01 T03770156  RH  027%=      5-min Rain = 0
KPA1 202100Z 20014KT 38/15 A2989 RMK A01 T03750152  RH  027%=      5-min Rain = 0
KPA1 202101Z 19012KT 37/16 A299 RMK A01 T03740160  RH  028%=      5-min Rain = 0
KPA1 202102Z 19013G18KT 38/17 A2989 RMK A01 T03750165  RH  029%=      5-min Rain = 0
KPA1 202103Z 18012G17KT 38/16 A2989 RMK A01 T03760158  RH  028%=      5-min Rain = 0
KPA1 202104Z 18013KT 38/15 A2989 RMK A01 T03770154  RH  027%=      5-min Rain = 0
KPA1 202105Z 18015KT 38/16 A2989 RMK A01 T03770156  RH  027%=      5-min Rain = 0
KPA1 202106Z 18016KT 38/16 A2989 RMK A01 T03780155  RH  027%=      5-min Rain = 0
KPA1 202107Z 18017KT 38/15 A2989 RMK A01 T03790152  RH  026%=      5-min Rain = 0
KPA1 202108Z 19015KT 38/15 A2989 RMK A01 T03800146  RH  025%=      5-min Rain = 0
KPA1 202109Z 19013KT 38/15 A2989 RMK A01 T03780148  RH  026%=      5-min Rain = 0
KPA1 202110Z 19014KT 38/15 A2989 RMK A01 T03770149  RH  026%=      5-min Rain = 0
KPA1 202111Z 19011KT 38/15 A2989 RMK A01 T03760150  RH  026%=      5-min Rain = 0
KPA1 202112Z 18015KT 38/16 A2989 RMK A01 T03760158  RH  028%=      5-min Rain = 0
KPA1 202113Z 18015G20KT 38/16 A2989 RMK A01 T03770162  RH  028%=      5-min Rain = 0
KPA1 202114Z 18017KT 38/15 A2989 RMK A01 T03800152  RH  026%=      5-min Rain = 0
KPA1 202115Z 17017KT 38/14 A2989 RMK A01 T03780144  RH  025%=      5-min Rain = 0
KPA1 202116Z 17014KT 38/14 A2989 RMK A01 T03770142  RH  025%=      5-min Rain = 0
KPA1 202117Z 17017KT 38/14 A2989 RMK A01 T03770141  RH  025%=      5-min Rain = 0
KPA1 202118Z 17016KT 38/14 A2989 RMK A01 T03780137  RH  024%=      5-min Rain = 0
KPA1 202119Z 17016KT 38/14 A2989 RMK A01 T03810142  RH  024%=      5-min Rain = 0
KPA1 202120Z 18017KT 38/14 A2989 RMK A01 T03810143  RH  024%=      5-min Rain = 0
KPA1 202121Z 18014KT 38/15 A2989 RMK A01 T03820147  RH  025%=      5-min Rain = 0
KPA1 202122Z 17019G24KT 38/15 A2989 RMK A01 T03820152  RH  026%=      5-min Rain = 0
KPA1 202123Z 17017KT 38/16 A2989 RMK A01 T03820155  RH  026%=      5-min Rain = 0
KPA1 202124Z 17018KT 38/15 A2989 RMK A01 T03810153  RH  026%=      5-min Rain = 0
KPA1 202125Z 16015KT 38/15 A2989 RMK A01 T03810152  RH  026%=      5-min Rain = 0
KPA1 202126Z 17013G19KT 38/15 A2989 RMK A01 T03800153  RH  026%=      5-min Rain = 0
KPA1 202127Z 17016KT 38/15 A2989 RMK A01 T03800153  RH  026%=      5-min Rain = 0
KPA1 202128Z 18017G22KT 38/15 A2989 RMK A01 T03800151  RH  026%=      5-min Rain = 0
KPA1 202129Z 18017KT 38/15 A2989 RMK A01 T03780147  RH  026%=      5-min Rain = 0
KPA1 202130Z 18014KT 38/16 A2989 RMK A01 T03770156  RH  027%=      5-min Rain = 0
KPA1 202131Z 18017KT 38/15 A2989 RMK A01 T03790147  RH  025%=      5-min Rain = 0
KPA1 202132Z 18016KT 38/14 A2989 RMK A01 T03790138  RH  024%=      5-min Rain = 0
KPA1 202133Z 18013KT 38/14 A2989 RMK A01 T03790137  RH  024%=      5-min Rain = 0
KPA1 202134Z 18014KT 38/14 A2988 RMK A01 T03800140  RH  024%=      5-min Rain = 0
KPA1 202135Z 17013KT 38/14 A2988 RMK A01 T03810137  RH  023%=      5-min Rain = 0
KPA1 202136Z 17017G24KT 38/14 A2988 RMK A01 T03810141  RH  024%=      5-min Rain = 0
KPA1 202137Z 19010KT 38/15 A2988 RMK A01 T03790148  RH  025%=      5-min Rain = 0
KPA1 202138Z 18016KT 38/16 A2988 RMK A01 T03780156  RH  027%=      5-min Rain = 0
KPA1 202139Z 18019KT 38/15 A2988 RMK A01 T03780147  RH  026%=      5-min Rain = 0
KPA1 202140Z 19017G22KT 38/14 A2988 RMK A01 T03780141  RH  025%=      5-min Rain = 0
KPA1 202141Z 19015KT 38/15 A2988 RMK A01 T03790145  RH  025%=      5-min Rain = 0
KPA1 202142Z 19015KT 38/14 A2988 RMK A01 T03770138  RH  024%=      5-min Rain = 0
KPA1 202143Z 18011KT 38/14 A2988 RMK A01 T03760139  RH  025%=      5-min Rain = 0
KPA1 202144Z 17011KT 38/14 A2988 RMK A01 T03780138  RH  024%=      5-min Rain = 0
KPA1 202145Z 16015KT 38/14 A2988 RMK A01 T03800138  RH  024%=      5-min Rain = 0
KPA1 202146Z 17015KT 38/15 A2988 RMK A01 T03810148  RH  025%=      5-min Rain = 0
KPA1 202147Z 17019KT 38/15 A2988 RMK A01 T03830146  RH  025%=      5-min Rain = 0
KPA1 202148Z 18018KT 38/15 A2988 RMK A01 T03840146  RH  025%=      5-min Rain = 0
KPA1 202149Z 18013KT 38/16 A2988 RMK A01 T03820156  RH  026%=      5-min Rain = 0
KPA1 202150Z 19013KT 38/16 A2988 RMK A01 T03810162  RH  028%=      5-min Rain = 0
KPA1 202151Z 18015KT 38/16 A2988 RMK A01 T03810161  RH  027%=      5-min Rain = 0
KPA1 202152Z 19017KT 38/15 A2988 RMK A01 T03810151  RH  026%=      5-min Rain = 0
KPA1 202153Z 18019KT 38/15 A2988 RMK A01 T03780145  RH  025%=      5-min Rain = 0
KPA1 202154Z 18015KT 38/14 A2988 RMK A01 T03780139  RH  024%=      5-min Rain = 0
KPA1 202155Z 18010KT 38/15 A2988 RMK A01 T03800145  RH  025%=      5-min Rain = 0
KPA1 202156Z 18009KT 39/15 A2988 RMK A01 T03850154  RH  026%=      5-min Rain = 0
KPA1 202157Z 17013KT 39/15 A2988 RMK A01 T03870146  RH  024%=      5-min Rain = 0
KPA1 202158Z 16015KT 39/14 A2988 RMK A01 T03870139  RH  023%=      5-min Rain = 0
KPA1 202159Z 18018KT 39/14 A2988 RMK A01 T03860143  RH  024%=      5-min Rain = 0
KPA1 202200Z 18014KT 38/15 A2988 RMK A01 T03820145  RH  025%=      5-min Rain = 0
KPA1 202201Z 17017KT 38/14 A2988 RMK A01 T03810141  RH  024%=      5-min Rain = 0
KPA1 202202Z 17014KT 38/15 A2988 RMK A01 T03800145  RH  025%=      5-min Rain = 0
KPA1 202203Z 17016KT 38/15 A2988 RMK A01 T03810145  RH  025%=      5-min Rain = 0
KPA1 202204Z 17016KT 38/14 A2988 RMK A01 T03810143  RH  024%=      5-min Rain = 0
KPA1 202205Z 17016KT 38/14 A2988 RMK A01 T03810144  RH  025%=      5-min Rain = 0
KPA1 202206Z 16016KT 38/15 A2988 RMK A01 T03800145  RH  025%=      5-min Rain = 0
KPA1 202207Z 16016KT 38/14 A2988 RMK A01 T03820143  RH  024%=      5-min Rain = 0
KPA1 202208Z 18016KT 38/14 A2988 RMK A01 T03820141  RH  024%=      5-min Rain = 0
KPA1 202209Z 19016KT 38/15 A2988 RMK A01 T03810145  RH  025%=      5-min Rain = 0
KPA1 202210Z 19014KT 38/15 A2988 RMK A01 T03790152  RH  026%=      5-min Rain = 0
KPA1 202211Z 18017KT 38/15 A2988 RMK A01 T03770152  RH  026%=      5-min Rain = 0
KPA1 202212Z 17017KT 38/14 A2988 RMK A01 T03770143  RH  025%=      5-min Rain = 0
KPA1 202213Z 17016KT 38/14 A2988 RMK A01 T03790143  RH  025%=      5-min Rain = 0
KPA1 202214Z 18013KT 38/14 A2988 RMK A01 T03800140  RH  024%=      5-min Rain = 0
KPA1 202215Z 17015KT 38/15 A2988 RMK A01 T03790145  RH  025%=      5-min Rain = 0
KPA1 202216Z 16012KT 38/14 A2987 RMK A01 T03790144  RH  025%=      5-min Rain = 0
KPA1 202217Z 17013G18KT 38/15 A2987 RMK A01 T03820149  RH  025%=      5-min Rain = 0
KPA1 202218Z 19017KT 38/15 A2987 RMK A01 T03830151  RH  025%=      5-min Rain = 0
KPA1 202219Z 19016KT 38/15 A2987 RMK A01 T03790146  RH  025%=      5-min Rain = 0
KPA1 202220Z 18016KT 38/15 A2987 RMK A01 T03770146  RH  025%=      5-min Rain = 0
KPA1 202221Z 18014KT 38/15 A2987 RMK A01 T03770148  RH  026%=      5-min Rain = 0
KPA1 202222Z 17014KT 38/15 A2987 RMK A01 T03770148  RH  026%=      5-min Rain = 0
KPA1 202223Z 18016G22KT 38/15 A2987 RMK A01 T03790151  RH  026%=      5-min Rain = 0
KPA1 202224Z 18017KT 38/15 A2987 RMK A01 T03790147  RH  025%=      5-min Rain = 0
KPA1 202225Z 17015KT 38/15 A2987 RMK A01 T03780145  RH  025%=      5-min Rain = 0
KPA1 202226Z 17018KT 38/15 A2987 RMK A01 T03770148  RH  026%=      5-min Rain = 0
KPA1 202227Z 18016KT 38/15 A2987 RMK A01 T03800146  RH  025%=      5-min Rain = 0
KPA1 202228Z 18017KT 38/14 A2987 RMK A01 T03790144  RH  025%=      5-min Rain = 0
KPA1 202229Z 18015KT 38/16 A2987 RMK A01 T03770157  RH  027%=      5-min Rain = 0
KPA1 202230Z 18016KT 38/16 A2987 RMK A01 T03760157  RH  028%=      5-min Rain = 0
KPA1 202231Z 19014KT 38/16 A2987 RMK A01 T03750156  RH  027%=      5-min Rain = 0
KPA1 202232Z 19015KT 37/16 A2987 RMK A01 T03740155  RH  027%=      5-min Rain = 0
KPA1 202233Z 18013KT 37/15 A2987 RMK A01 T03730153  RH  027%=      5-min Rain = 0
KPA1 202234Z 18015KT 37/15 A2987 RMK A01 T03730154  RH  027%=      5-min Rain = 0
KPA1 202235Z 18014KT 37/16 A2987 RMK A01 T03740156  RH  028%=      5-min Rain = 0
KPA1 202236Z 17011KT 38/15 A2987 RMK A01 T03750151  RH  027%=      5-min Rain = 0
KPA1 202237Z 18013KT 38/15 A2987 RMK A01 T03770151  RH  026%=      5-min Rain = 0
KPA1 202238Z 18012KT 38/15 A2987 RMK A01 T03770154  RH  027%=      5-min Rain = 0
KPA1 202239Z 17015KT 38/15 A2987 RMK A01 T03780150  RH  026%=      5-min Rain = 0
KPA1 202240Z 17018KT 38/14 A2987 RMK A01 T03780139  RH  024%=      5-min Rain = 0
KPA1 202241Z 18015G20KT 38/14 A2987 RMK A01 T03790138  RH  024%=      5-min Rain = 0
KPA1 202242Z 17016KT 38/14 A2987 RMK A01 T03790138  RH  024%=      5-min Rain = 0
KPA1 202243Z 18017KT 38/14 A2987 RMK A01 T03790139  RH  024%=      5-min Rain = 0
KPA1 202244Z 18017KT 38/14 A2987 RMK A01 T03770141  RH  025%=      5-min Rain = 0
KPA1 202245Z 18016KT 38/14 A2987 RMK A01 T03760138  RH  024%=      5-min Rain = 0
KPA1 202246Z 17018G24KT 38/14 A2987 RMK A01 T03760140  RH  025%=      5-min Rain = 0
KPA1 202247Z 16019KT 38/14 A2987 RMK A01 T03780139  RH  024%=      5-min Rain = 0
KPA1 202248Z 17018KT 38/14 A2987 RMK A01 T03780140  RH  024%=      5-min Rain = 0
KPA1 202249Z 18013KT 38/14 A2987 RMK A01 T03780144  RH  025%=      5-min Rain = 0
KPA1 202250Z 19013G18KT 38/15 A2987 RMK A01 T03810152  RH  026%=      5-min Rain = 0
KPA1 202251Z 19015KT 38/15 A2987 RMK A01 T03780152  RH  026%=      5-min Rain = 0
KPA1 202252Z 18015KT 37/15 A2987 RMK A01 T03740151  RH  027%=      5-min Rain = 0
KPA1 202253Z 19012KT 37/16 A2987 RMK A01 T03720155  RH  028%=      5-min Rain = 0
KPA1 202254Z 18014KT 37/15 A2987 RMK A01 T03720153  RH  027%=      5-min Rain = 0
KPA1 202255Z 18013KT 37/15 A2987 RMK A01 T03730152  RH  027%=      5-min Rain = 0
KPA1 202256Z 18014KT 38/15 A2986 RMK A01 T03750150  RH  026%=      5-min Rain = 0
KPA1 202257Z 17011G16KT 38/15 A2986 RMK A01 T03750147  RH  026%=      5-min Rain = 0
KPA1 202258Z 17013KT 38/15 A2986 RMK A01 T03770148  RH  026%=      5-min Rain = 0
KPA1 202259Z 16013KT 38/15 A2986 RMK A01 T03790148  RH  025%=      5-min Rain = 0
KPA1 202300Z 17013KT 38/15 A2986 RMK A01 T03790146  RH  025%=      5-min Rain = 0
KPA1 202301Z 19013KT 38/15 A2986 RMK A01 T03790154  RH  026%=      5-min Rain = 0
KPA1 202302Z 18013KT 38/15 A2986 RMK A01 T03760153  RH  027%=      5-min Rain = 0
KPA1 202303Z 17014KT 38/15 A2986 RMK A01 T03750151  RH  027%=      5-min Rain = 0
KPA1 202304Z 17016KT 38/14 A2986 RMK A01 T03750143  RH  025%=      5-min Rain = 0
KPA1 202305Z 18018KT 38/14 A2986 RMK A01 T03760141  RH  025%=      5-min Rain = 0
KPA1 202306Z 18016KT 38/15 A2986 RMK A01 T03760145  RH  025%=      5-min Rain = 0
KPA1 202307Z 19014KT 38/15 A2986 RMK A01 T03760147  RH  026%=      5-min Rain = 0
KPA1 202308Z 19015KT 38/15 A2986 RMK A01 T03750148  RH  026%=      5-min Rain = 0
KPA1 202309Z 19015KT 37/15 A2986 RMK A01 T03730150  RH  027%=      5-min Rain = 0
KPA1 202310Z 17015KT 37/15 A2986 RMK A01 T03720145  RH  026%=      5-min Rain = 0
KPA1 202311Z 16012KT 37/15 A2986 RMK A01 T03730150  RH  027%=      5-min Rain = 0
KPA1 202312Z 15015KT 38/15 A2986 RMK A01 T03770151  RH  026%=      5-min Rain = 0
KPA1 202313Z 15012KT 38/15 A2986 RMK A01 T03770148  RH  026%=      5-min Rain = 0
KPA1 202314Z 15015KT 38/15 A2986 RMK A01 T03770146  RH  025%=      5-min Rain = 0
KPA1 202315Z 18020G28KT 38/15 A2986 RMK A01 T03760146  RH  026%=      5-min Rain = 0
KPA1 202316Z 19017KT 37/15 A2986 RMK A01 T03740151  RH  027%=      5-min Rain = 0
KPA1 202317Z 18017KT 37/15 A2986 RMK A01 T03720148  RH  026%=      5-min Rain = 0
KPA1 202318Z 18016KT 37/15 A2986 RMK A01 T03720147  RH  026%=      5-min Rain = 0
KPA1 202319Z 19016KT 37/15 A2986 RMK A01 T03720152  RH  027%=      5-min Rain = 0
KPA1 202320Z 18016KT 37/15 A2986 RMK A01 T03700147  RH  027%=      5-min Rain = 0
KPA1 202321Z 18012KT 37/15 A2986 RMK A01 T03700151  RH  027%=      5-min Rain = 0
KPA1 202322Z 17014G20KT 37/15 A2986 RMK A01 T03710150  RH  027%=      5-min Rain = 0
KPA1 202323Z 17016KT 37/14 A2986 RMK A01 T03720144  RH  026%=      5-min Rain = 0
KPA1 202324Z 17016KT 37/14 A2986 RMK A01 T03730144  RH  026%=      5-min Rain = 0
KPA1 202325Z 17010KT 37/15 A2986 RMK A01 T03740150  RH  027%=      5-min Rain = 0
KPA1 202326Z 16014KT 38/16 A2986 RMK A01 T03760155  RH  027%=      5-min Rain = 0
KPA1 202327Z 16013KT 38/15 A2986 RMK A01 T03770147  RH  026%=      5-min Rain = 0
KPA1 202328Z 16014KT 38/15 A2986 RMK A01 T03760148  RH  026%=      5-min Rain = 0
KPA1 202329Z 16016G21KT 37/15 A2986 RMK A01 T03740146  RH  026%=      5-min Rain = 0
KPA1 202330Z 16018KT 37/14 A2986 RMK A01 T03740143  RH  025%=      5-min Rain = 0
KPA1 202331Z 16017KT 37/14 A2986 RMK A01 T03730137  RH  024%=      5-min Rain = 0
KPA1 202332Z 16016KT 37/14 A2986 RMK A01 T03730138  RH  025%=      5-min Rain = 0
KPA1 202333Z 15017KT 37/14 A2986 RMK A01 T03720139  RH  025%=      5-min Rain = 0
KPA1 202334Z 16019KT 37/14 A2986 RMK A01 T03720139  RH  025%=      5-min Rain = 0
KPA1 202335Z 17017KT 37/14 A2986 RMK A01 T03710140  RH  025%=      5-min Rain = 0
KPA1 202336Z 17017KT 37/14 A2986 RMK A01 T03710139  RH  025%=      5-min Rain = 0
KPA1 202337Z 18014KT 37/14 A2986 RMK A01 T03710143  RH  026%=      5-min Rain = 0
KPA1 202338Z 19014KT 37/15 A2986 RMK A01 T03710150  RH  027%=      5-min Rain = 0
KPA1 202339Z 18014KT 37/15 A2986 RMK A01 T03690150  RH  027%=      5-min Rain = 0
KPA1 202340Z 18010G15KT 37/15 A2986 RMK A01 T03670153  RH  028%=      5-min Rain = 0
KPA1 202341Z 18011KT 37/15 A2986 RMK A01 T03660154  RH  028%=      5-min Rain = 0
KPA1 202342Z 18013KT 37/15 A2986 RMK A01 T03670149  RH  027%=      5-min Rain = 0
KPA1 202343Z 17017KT 37/15 A2986 RMK A01 T03690145  RH  026%=      5-min Rain = 0
KPA1 202344Z 18020KT 37/14 A2986 RMK A01 T03700144  RH  026%=      5-min Rain = 0
KPA1 202345Z 19017KT 37/15 A2986 RMK A01 T03700146  RH  026%=      5-min Rain = 0
KPA1 202346Z 18017KT 37/15 A2986 RMK A01 T03690147  RH  027%=      5-min Rain = 0
KPA1 202347Z 18014KT 37/15 A2986 RMK A01 T03670147  RH  027%=      5-min Rain = 0
KPA1 202348Z 18013KT 37/15 A2986 RMK A01 T03660146  RH  027%=      5-min Rain = 0
KPA1 202349Z 18013KT 37/15 A2986 RMK A01 T03660147  RH  027%=      5-min Rain = 0
KPA1 202350Z 17010G15KT 37/15 A2986 RMK A01 T03670149  RH  028%=      5-min Rain = 0
KPA1 202351Z 17013KT 37/15 A2986 RMK A01 T03680149  RH  027%=      5-min Rain = 0
KPA1 202352Z 17012KT 37/15 A2986 RMK A01 T03690150  RH  027%=      5-min Rain = 0
KPA1 202353Z 16013KT 37/15 A2986 RMK A01 T03700147  RH  027%=      5-min Rain = 0
KPA1 202354Z 17011KT 37/15 A2986 RMK A01 T03690146  RH  027%=      5-min Rain = 0
KPA1 202355Z 17018KT 37/14 A2986 RMK A01 T03690143  RH  026%=      5-min Rain = 0
KPA1 202356Z 18017KT 37/14 A2986 RMK A01 T03700139  RH  025%=      5-min Rain = 0
KPA1 202357Z 18015KT 37/14 A2986 RMK A01 T03700141  RH  026%=      5-min Rain = 0
KPA1 202358Z 17012KT 37/14 A2986 RMK A01 T03690143  RH  026%=      5-min Rain = 0
KPA1 202359Z 18014KT 37/15 A2986 RMK A01 T03680146  RH  027%=      5-min Rain = 0
KPA1 210000Z 18014G19KT 37/15 A2986 RMK A01 T03680147  RH  027%=      5-min Rain = 0
KPA1 210001Z 18012G17KT 37/15 A2986 RMK A01 T03670148  RH  027%=      5-min Rain = 0
KPA1 210002Z 17014KT 37/14 A2986 RMK A01 T03670142  RH  026%=      5-min Rain = 0
KPA1 210003Z 18011KT 37/15 A2986 RMK A01 T03670148  RH  027%=      5-min Rain = 0
KPA1 210004Z 18013KT 37/15 A2986 RMK A01 T03660154  RH  028%=      5-min Rain = 0
KPA1 210005Z 18012KT 36/15 A2986 RMK A01 T03630152  RH  029%=      5-min Rain = 0
KPA1 210006Z 19013G18KT 36/15 A2986 RMK A01 T03610154  RH  029%=      5-min Rain = 0
KPA1 210007Z 18015KT 36/15 A2986 RMK A01 T03600151  RH  029%=      5-min Rain = 0
KPA1 210008Z 18014KT 36/15 A2986 RMK A01 T03600149  RH  029%=      5-min Rain = 0
KPA1 210009Z 18012KT 36/15 A2986 RMK A01 T03600151  RH  029%=      5-min Rain = 0
KPA1 210010Z 18015KT 36/15 A2986 RMK A01 T03590151  RH  029%=      5-min Rain = 0
KPA1 210011Z 17017KT 36/14 A2986 RMK A01 T03600142  RH  027%=      5-min Rain = 0
KPA1 210012Z 17015KT 36/14 A2986 RMK A01 T03620138  RH  026%=      5-min Rain = 0
KPA1 210013Z 18013KT 36/14 A2986 RMK A01 T03640142  RH  027%=      5-min Rain = 0
KPA1 210014Z 19015KT 36/15 A2986 RMK A01 T03630147  RH  028%=      5-min Rain = 0
KPA1 210015Z 18015KT 36/15 A2986 RMK A01 T03600149  RH  028%=      5-min Rain = 0
KPA1 210016Z 18015KT 36/15 A2986 RMK A01 T03590146  RH  028%=      5-min Rain = 0
KPA1 210017Z 17014KT 36/14 A2986 RMK A01 T03600143  RH  027%=      5-min Rain = 0
KPA1 210018Z 17012G18KT 36/14 A2986 RMK A01 T03620142  RH  027%=      5-min Rain = 0
KPA1 210019Z 17013KT 36/14 A2986 RMK A01 T03630140  RH  026%=      5-min Rain = 0
KPA1 210020Z 17011G16KT 36/14 A2986 RMK A01 T03640142  RH  027%=      5-min Rain = 0
KPA1 210021Z 17014KT 36/14 A2986 RMK A01 T03640141  RH  026%=      5-min Rain = 0
KPA1 210022Z 16013KT 36/14 A2986 RMK A01 T03640140  RH  026%=      5-min Rain = 0
KPA1 210023Z 16016KT 36/14 A2986 RMK A01 T03640140  RH  026%=      5-min Rain = 0
KPA1 210024Z 17013KT 36/14 A2986 RMK A01 T03630142  RH  027%=      5-min Rain = 0
KPA1 210025Z 18015KT 36/14 A2986 RMK A01 T03630144  RH  027%=      5-min Rain = 0
KPA1 210026Z 17015KT 36/14 A2986 RMK A01 T03620140  RH  027%=      5-min Rain = 0
KPA1 210027Z 17016KT 36/14 A2986 RMK A01 T03620139  RH  026%=      5-min Rain = 0
KPA1 210028Z 17015KT 36/14 A2986 RMK A01 T03620139  RH  026%=      5-min Rain = 0
KPA1 210029Z 16015KT 36/14 A2986 RMK A01 T03620138  RH  026%=      5-min Rain = 0
KPA1 210030Z 16015KT 36/14 A2986 RMK A01 T03620139  RH  026%=      5-min Rain = 0
KPA1 210031Z 16012KT 36/14 A2986 RMK A01 T03620142  RH  027%=      5-min Rain = 0
KPA1 210032Z 16014KT 36/14 A2986 RMK A01 T03610142  RH  027%=      5-min Rain = 0
KPA1 210033Z 16013KT 36/14 A2986 RMK A01 T03610143  RH  027%=      5-min Rain = 0
KPA1 210034Z 17014KT 36/14 A2986 RMK A01 T03600142  RH  027%=      5-min Rain = 0
KPA1 210035Z 17015KT 36/14 A2986 RMK A01 T03600141  RH  027%=      5-min Rain = 0
KPA1 210036Z 16015KT 36/14 A2986 RMK A01 T03600140  RH  027%=      5-min Rain = 0
KPA1 210037Z 16015KT 36/14 A2986 RMK A01 T03600140  RH  027%=      5-min Rain = 0
KPA1 210038Z 16013KT 36/14 A2986 RMK A01 T03590143  RH  027%=      5-min Rain = 0
KPA1 210039Z 16013KT 36/14 A2986 RMK A01 T03590144  RH  028%=      5-min Rain = 0
KPA1 210040Z 16011KT 36/14 A2986 RMK A01 T03580144  RH  028%=      5-min Rain = 0
KPA1 210041Z 16011KT 36/15 A2987 RMK A01 T03570146  RH  028%=      5-min Rain = 0
KPA1 210042Z 16013KT 36/15 A2987 RMK A01 T03570148  RH  029%=      5-min Rain = 0
KPA1 210043Z 17013KT 36/15 A2987 RMK A01 T03560147  RH  029%=      5-min Rain = 0
KPA1 210044Z 17011KT 36/15 A2987 RMK A01 T03560145  RH  028%=      5-min Rain = 0
KPA1 210045Z 17012KT 36/15 A2987 RMK A01 T03560146  RH  029%=      5-min Rain = 0
KPA1 210046Z 16011KT 36/15 A2987 RMK A01 T03560146  RH  029%=      5-min Rain = 0
KPA1 210047Z 16012G17KT 36/15 A2987 RMK A01 T03560148  RH  029%=      5-min Rain = 0
KPA1 210048Z 16013KT 36/15 A2987 RMK A01 T03550147  RH  029%=      5-min Rain = 0
KPA1 210049Z 16014KT 35/14 A2987 RMK A01 T03540144  RH  029%=      5-min Rain = 0
KPA1 210050Z 16014KT 35/14 A2987 RMK A01 T03540144  RH  029%=      5-min Rain = 0
KPA1 210051Z 16012KT 35/14 A2987 RMK A01 T03540144  RH  029%=      5-min Rain = 0
KPA1 210052Z 16012KT 35/15 A2987 RMK A01 T03530145  RH  029%=      5-min Rain = 0
KPA1 210053Z 16013KT 35/15 A2987 RMK A01 T03530146  RH  029%=      5-min Rain = 0
KPA1 210054Z 16013KT 35/15 A2987 RMK A01 T03520145  RH  029%=      5-min Rain = 0
KPA1 210055Z 16013KT 35/15 A2987 RMK A01 T03520145  RH  029%=      5-min Rain = 0
KPA1 210056Z 16012KT 35/15 A2987 RMK A01 T03510145  RH  029%=      5-min Rain = 0
KPA1 210057Z 16012KT 35/15 A2987 RMK A01 T03510147  RH  029%=      5-min Rain = 0
KPA1 210058Z 16012KT 35/15 A2987 RMK A01 T03500148  RH  030%=      5-min Rain = 0
KPA1 210059Z 16013KT 35/15 A2987 RMK A01 T03490147  RH  030%=      5-min Rain = 0
KPA1 210100Z 16012KT 35/15 A2987 RMK A01 T03490148  RH  030%=      5-min Rain = 0
KPA1 210101Z 16012KT 35/15 A2987 RMK A01 T03490147  RH  030%=      5-min Rain = 0
KPA1 210102Z 16012KT 35/15 A2987 RMK A01 T03480148  RH  030%=      5-min Rain = 0
KPA1 210103Z 16012KT 35/15 A2987 RMK A01 T03480148  RH  030%=      5-min Rain = 0
KPA1 210104Z 16015KT 35/15 A2987 RMK A01 T03470146  RH  030%=      5-min Rain = 0
KPA1 210105Z 15014KT 35/14 A2987 RMK A01 T03470144  RH  030%=      5-min Rain = 0
KPA1 210106Z 16013KT 35/14 A2987 RMK A01 T03480144  RH  029%=      5-min Rain = 0
KPA1 210107Z 16012KT 35/15 A2987 RMK A01 T03480145  RH  030%=      5-min Rain = 0
KPA1 210108Z 16011KT 35/15 A2987 RMK A01 T03480146  RH  030%=      5-min Rain = 0
KPA1 210109Z 16011KT 35/15 A2987 RMK A01 T03460148  RH  030%=      5-min Rain = 0
KPA1 210110Z 16012KT 35/15 A2987 RMK A01 T03450148  RH  031%=      5-min Rain = 0
KPA1 210111Z 16012KT 34/15 A2987 RMK A01 T03440148  RH  031%=      5-min Rain = 0
KPA1 210112Z 16011KT 34/15 A2987 RMK A01 T03430148  RH  031%=      5-min Rain = 0
KPA1 210113Z 15010KT 34/15 A2987 RMK A01 T03430149  RH  031%=      5-min Rain = 0
KPA1 210114Z 15011KT 34/15 A2987 RMK A01 T03410150  RH  032%=      5-min Rain = 0
KPA1 210115Z 15010KT 34/15 A2987 RMK A01 T03390150  RH  032%=      5-min Rain = 0
KPA1 210116Z 15011KT 34/15 A2987 RMK A01 T03380150  RH  032%=      5-min Rain = 0
KPA1 210117Z 15010KT 34/15 A2987 RMK A01 T03380150  RH  032%=      5-min Rain = 0
KPA1 210118Z 15011KT 34/15 A2987 RMK A01 T03370151  RH  033%=      5-min Rain = 0
KPA1 210119Z 15011KT 34/15 A2987 RMK A01 T03370151  RH  033%=      5-min Rain = 0
KPA1 210120Z 16012KT 34/15 A2987 RMK A01 T03360151  RH  033%=      5-min Rain = 0
KPA1 210121Z 16011KT 34/15 A2987 RMK A01 T03360149  RH  033%=      5-min Rain = 0
KPA1 210122Z 16011KT 34/15 A2987 RMK A01 T03360149  RH  033%=      5-min Rain = 0
KPA1 210123Z 16012KT 34/15 A2987 RMK A01 T03360149  RH  033%=      5-min Rain = 0
KPA1 210124Z 16011KT 34/15 A2987 RMK A01 T03370149  RH  032%=      5-min Rain = 0
KPA1 210125Z 16011KT 34/15 A2987 RMK A01 T03370148  RH  032%=      5-min Rain = 0
KPA1 210126Z 16010KT 34/15 A2987 RMK A01 T03360149  RH  032%=      5-min Rain = 0
KPA1 210127Z 15010KT 34/15 A2987 RMK A01 T03360149  RH  033%=      5-min Rain = 0
KPA1 210128Z 15009KT 33/15 A2988 RMK A01 T03340150  RH  033%=      5-min Rain = 0
KPA1 210129Z 15010KT 33/15 A2988 RMK A01 T03330150  RH  033%=      5-min Rain = 0
KPA1 210130Z 15010KT 33/15 A2988 RMK A01 T03320151  RH  034%=      5-min Rain = 0
KPA1 210131Z 15010KT 33/15 A2988 RMK A01 T03300151  RH  034%=      5-min Rain = 0
KPA1 210132Z 15010KT 33/15 A2988 RMK A01 T03290150  RH  034%=      5-min Rain = 0
KPA1 210133Z 15010KT 33/15 A2988 RMK A01 T03290150  RH  034%=      5-min Rain = 0
KPA1 210134Z 15010KT 33/15 A2988 RMK A01 T03280151  RH  034%=      5-min Rain = 0
KPA1 210135Z 15010KT 33/15 A2988 RMK A01 T03270151  RH  035%=      5-min Rain = 0
KPA1 210136Z 15010KT 33/15 A2988 RMK A01 T03250151  RH  035%=      5-min Rain = 0
KPA1 210137Z 15011KT 32/15 A2988 RMK A01 T03240151  RH  035%=      5-min Rain = 0
KPA1 210138Z 15011KT 32/15 A2988 RMK A01 T03230150  RH  035%=      5-min Rain = 0
KPA1 210139Z 15011KT 32/15 A2987 RMK A01 T03230150  RH  035%=      5-min Rain = 0
KPA1 210140Z 15011KT 32/15 A2987 RMK A01 T03230150  RH  035%=      5-min Rain = 0
KPA1 210141Z 15011KT 32/15 A2987 RMK A01 T03220150  RH  036%=      5-min Rain = 0
KPA1 210142Z 15010KT 32/15 A2987 RMK A01 T03210151  RH  036%=      5-min Rain = 0
KPA1 210143Z 15011KT 32/15 A2987 RMK A01 T03200150  RH  036%=      5-min Rain = 0
KPA1 210144Z 15010KT 32/15 A2987 RMK A01 T03190150  RH  036%=      5-min Rain = 0
KPA1 210145Z 15010KT 32/15 A2987 RMK A01 T03180151  RH  036%=      5-min Rain = 0
KPA1 210146Z 15010KT 32/15 A2988 RMK A01 T03170150  RH  036%=      5-min Rain = 0
KPA1 210147Z 15010KT 32/15 A2988 RMK A01 T03170150  RH  037%=      5-min Rain = 0
KPA1 210148Z 15010KT 32/15 A2988 RMK A01 T03160150  RH  037%=      5-min Rain = 0
KPA1 210149Z 15010KT 32/15 A2988 RMK A01 T03150150  RH  037%=      5-min Rain = 0
KPA1 210150Z 15010KT 32/15 A2988 RMK A01 T03150150  RH  037%=      5-min Rain = 0
KPA1 210151Z 15010KT 31/15 A2987 RMK A01 T03140150  RH  037%=      5-min Rain = 0
KPA1 210152Z 15010KT 31/15 A2987 RMK A01 T03130150  RH  037%=      5-min Rain = 0
KPA1 210153Z 15011KT 31/15 A2987 RMK A01 T03120150  RH  037%=      5-min Rain = 0
KPA1 210154Z 15010KT 31/15 A2987 RMK A01 T03120150  RH  037%=      5-min Rain = 0
KPA1 210155Z 15011KT 31/15 A2987 RMK A01 T03120150  RH  038%=      5-min Rain = 0
KPA1 210156Z 15011KT 31/15 A2987 RMK A01 T03110150  RH  038%=      5-min Rain = 0
KPA1 210157Z 15010KT 31/15 A2987 RMK A01 T03110150  RH  038%=      5-min Rain = 0
KPA1 210158Z 14010KT 31/15 A2987 RMK A01 T03100150  RH  038%=      5-min Rain = 0
KPA1 210159Z 14011KT 31/15 A2987 RMK A01 T03090150  RH  038%=      5-min Rain = 0
KPA1 210200Z 14011KT 31/15 A2987 RMK A01 T03090151  RH  038%=      5-min Rain = 0
KPA1 210201Z 14012KT 31/15 A2987 RMK A01 T03080151  RH  038%=      5-min Rain = 0
KPA1 210202Z 14012KT 31/15 A2987 RMK A01 T03080150  RH  038%=      5-min Rain = 0
KPA1 210203Z 14012KT 31/15 A2987 RMK A01 T03080150  RH  038%=      5-min Rain = 0
KPA1 210204Z 14011KT 31/15 A2988 RMK A01 T03080151  RH  038%=      5-min Rain = 0
KPA1 210205Z 14011KT 31/15 A2988 RMK A01 T03080151  RH  039%=      5-min Rain = 0
KPA1 210206Z 14010KT 31/15 A2988 RMK A01 T03080152  RH  039%=      5-min Rain = 0
KPA1 210207Z 14011KT 31/15 A2988 RMK A01 T03070152  RH  039%=      5-min Rain = 0
KPA1 210208Z 14010KT 31/15 A2988 RMK A01 T03070152  RH  039%=      5-min Rain = 0
KPA1 210209Z 14012KT 31/15 A2988 RMK A01 T03060152  RH  039%=      5-min Rain = 0
KPA1 210210Z 14012KT 31/15 A2988 RMK A01 T03060152  RH  039%=      5-min Rain = 0
KPA1 210211Z 14013KT 31/15 A2988 RMK A01 T03070153  RH  039%=      5-min Rain = 0
KPA1 210212Z 14014KT 31/15 A2988 RMK A01 T03090154  RH  039%=      5-min Rain = 0
KPA1 210213Z 15015KT 31/15 A2988 RMK A01 T03110154  RH  039%=      5-min Rain = 0
KPA1 210214Z 15014KT 31/15 A2988 RMK A01 T03120154  RH  039%=      5-min Rain = 0
KPA1 210215Z 14012KT 31/16 A2988 RMK A01 T03120155  RH  039%=      5-min Rain = 0
KPA1 210216Z 14013KT 31/16 A2988 RMK A01 T03110155  RH  039%=      5-min Rain = 0
KPA1 210217Z 14013KT 31/16 A2988 RMK A01 T03110155  RH  039%=      5-min Rain = 0
KPA1 210218Z 14016G21KT 31/16 A2988 RMK A01 T03110155  RH  039%=      5-min Rain = 0
KPA1 210219Z 14015KT 31/16 A2988 RMK A01 T03120155  RH  039%=      5-min Rain = 0
KPA1 210220Z 14015KT 31/16 A2988 RMK A01 T03130155  RH  038%=      5-min Rain = 0
KPA1 210221Z 14014KT 31/15 A2988 RMK A01 T03130154  RH  038%=      5-min Rain = 0
KPA1 210222Z 14014KT 31/15 A2988 RMK A01 T03140154  RH  038%=      5-min Rain = 0
KPA1 210223Z 14014KT 31/16 A2988 RMK A01 T03140155  RH  038%=      5-min Rain = 0
KPA1 210224Z 14015KT 31/15 A2988 RMK A01 T03140154  RH  038%=      5-min Rain = 0
KPA1 210225Z 14013KT 31/15 A2988 RMK A01 T03140154  RH  038%=      5-min Rain = 0
KPA1 210226Z 14013KT 31/16 A2988 RMK A01 T03140155  RH  038%=      5-min Rain = 0
KPA1 210227Z 14012KT 31/16 A2988 RMK A01 T03130155  RH  039%=      5-min Rain = 0
KPA1 210228Z 14014KT 31/16 A2989 RMK A01 T03120155  RH  039%=      5-min Rain = 0
KPA1 210229Z 14013KT 31/15 A2989 RMK A01 T03120154  RH  039%=      5-min Rain = 0
KPA1 210230Z 14013KT 31/16 A2989 RMK A01 T03120155  RH  039%=      5-min Rain = 0
KPA1 210231Z 14012KT 31/16 A2989 RMK A01 T03120155  RH  039%=      5-min Rain = 0
KPA1 210232Z 14014KT 31/16 A2989 RMK A01 T03110155  RH  039%=      5-min Rain = 0
KPA1 210233Z 14013KT 31/15 A2989 RMK A01 T03110154  RH  039%=      5-min Rain = 0
KPA1 210234Z 14014KT 31/16 A2989 RMK A01 T03110155  RH  039%=      5-min Rain = 0
KPA1 210235Z 14015KT 31/15 A2989 RMK A01 T03120154  RH  039%=      5-min Rain = 0
KPA1 210236Z 14014KT 31/15 A2989 RMK A01 T03120154  RH  039%=      5-min Rain = 0
KPA1 210237Z 14013KT 31/16 A2989 RMK A01 T03120155  RH  039%=      5-min Rain = 0
KPA1 210238Z 14013KT 31/16 A2989 RMK A01 T03120155  RH  039%=      5-min Rain = 0
KPA1 210239Z 14013KT 31/16 A2989 RMK A01 T03110155  RH  039%=      5-min Rain = 0
KPA1 210240Z 14013KT 31/16 A2989 RMK A01 T03110155  RH  039%=      5-min Rain = 0
KPA1 210241Z 14012KT 31/16 A2989 RMK A01 T03100155  RH  039%=      5-min Rain = 0
KPA1 210242Z 14011KT 31/16 A2989 RMK A01 T03100155  RH  039%=      5-min Rain = 0
KPA1 210243Z 14011KT 31/16 A2989 RMK A01 T03090155  RH  039%=      5-min Rain = 0
KPA1 210244Z 13011KT 31/16 A299 RMK A01 T03080155  RH  040%=      5-min Rain = 0
KPA1 210245Z 13012KT 31/16 A299 RMK A01 T03070155  RH  040%=      5-min Rain = 0
KPA1 210246Z 13011KT 31/16 A299 RMK A01 T03070156  RH  040%=      5-min Rain = 0
KPA1 210247Z 13011KT 31/16 A299 RMK A01 T03060156  RH  040%=      5-min Rain = 0
KPA1 210248Z 13011KT 31/16 A299 RMK A01 T03050156  RH  041%=      5-min Rain = 0
KPA1 210249Z 13012KT 30/16 A299 RMK A01 T03040156  RH  041%=      5-min Rain = 0
KPA1 210250Z 14012KT 30/16 A299 RMK A01 T03030156  RH  041%=      5-min Rain = 0
KPA1 210251Z 13012KT 30/16 A299 RMK A01 T03020157  RH  041%=      5-min Rain = 0
KPA1 210252Z 13011KT 30/16 A299 RMK A01 T03020157  RH  042%=      5-min Rain = 0
KPA1 210253Z 13012KT 30/16 A299 RMK A01 T03010157  RH  042%=      5-min Rain = 0
KPA1 210254Z 13012KT 30/16 A299 RMK A01 T03000157  RH  042%=      5-min Rain = 0
KPA1 210255Z 13012KT 30/16 A299 RMK A01 T03000158  RH  042%=      5-min Rain = 0
KPA1 210256Z 13012KT 30/16 A299 RMK A01 T02990157  RH  042%=      5-min Rain = 0
KPA1 210257Z 13012KT 30/16 A299 RMK A01 T02980157  RH  042%=      5-min Rain = 0
KPA1 210258Z 13012KT 30/16 A299 RMK A01 T02980158  RH  043%=      5-min Rain = 0
KPA1 210259Z 13012KT 30/16 A299 RMK A01 T02970158  RH  043%=      5-min Rain = 0
KPA1 210300Z 13013KT 30/16 A2991 RMK A01 T02970158  RH  043%=      5-min Rain = 0
KPA1 210301Z 13013KT 30/16 A2991 RMK A01 T02970158  RH  043%=      5-min Rain = 0
KPA1 210302Z 13013KT 30/16 A2991 RMK A01 T02980158  RH  043%=      5-min Rain = 0
KPA1 210303Z 13013KT 30/16 A2991 RMK A01 T02980158  RH  043%=      5-min Rain = 0
KPA1 210304Z 13012KT 30/16 A2991 RMK A01 T02990159  RH  043%=      5-min Rain = 0
KPA1 210305Z 13013KT 30/16 A2991 RMK A01 T02980159  RH  043%=      5-min Rain = 0
KPA1 210306Z 13013KT 30/16 A2991 RMK A01 T02980159  RH  043%=      5-min Rain = 0
KPA1 210307Z 13013G18KT 30/16 A2991 RMK A01 T02980158  RH  043%=      5-min Rain = 0
KPA1 210308Z 13013KT 30/16 A2991 RMK A01 T02980158  RH  043%=      5-min Rain = 0
KPA1 210309Z 13013KT 30/16 A2991 RMK A01 T02980158  RH  043%=      5-min Rain = 0
KPA1 210310Z 14012KT 30/16 A2991 RMK A01 T02980158  RH  043%=      5-min Rain = 0
KPA1 210311Z 14013KT 30/16 A2991 RMK A01 T02980159  RH  043%=      5-min Rain = 0
KPA1 210312Z 14015KT 30/16 A2991 RMK A01 T02980159  RH  043%=      5-min Rain = 0
KPA1 210313Z 13015KT 30/16 A2991 RMK A01 T02980159  RH  043%=      5-min Rain = 0
KPA1 210314Z 13014KT 30/16 A2991 RMK A01 T02990159  RH  043%=      5-min Rain = 0
KPA1 210315Z 14015KT 30/16 A2991 RMK A01 T02990159  RH  043%=      5-min Rain = 0
KPA1 210316Z 14013KT 30/16 A2991 RMK A01 T02990158  RH  043%=      5-min Rain = 0
KPA1 210317Z 14012KT 30/16 A2992 RMK A01 T02990159  RH  043%=      5-min Rain = 0
KPA1 210318Z 14013G19KT 30/16 A2992 RMK A01 T02980159  RH  043%=      5-min Rain = 0
KPA1 210319Z 14013KT 30/16 A2992 RMK A01 T02980159  RH  043%=      5-min Rain = 0
KPA1 210320Z 14014KT 30/16 A2992 RMK A01 T02980159  RH  043%=      5-min Rain = 0
KPA1 210321Z 14015KT 30/16 A2992 RMK A01 T02980159  RH  043%=      5-min Rain = 0
KPA1 210322Z 14014G19KT 30/16 A2992 RMK A01 T02980159  RH  043%=      5-min Rain = 0
KPA1 210323Z 14015KT 30/16 A2992 RMK A01 T02980159  RH  043%=      5-min Rain = 0
KPA1 210324Z 14013KT 30/16 A2992 RMK A01 T02990159  RH  043%=      5-min Rain = 0
KPA1 210325Z 14014KT 30/16 A2992 RMK A01 T02980159  RH  043%=      5-min Rain = 0
KPA1 210326Z 14014KT 30/16 A2992 RMK A01 T02980159  RH  043%=      5-min Rain = 0
KPA1 210327Z 14015KT 30/16 A2992 RMK A01 T02970159  RH  043%=      5-min Rain = 0
KPA1 210328Z 14015KT 30/16 A2992 RMK A01 T02970159  RH  043%=      5-min Rain = 0
KPA1 210329Z 14016KT 30/16 A2992 RMK A01 T02970159  RH  043%=      5-min Rain = 0
KPA1 210330Z 14015KT 30/16 A2992 RMK A01 T02980158  RH  043%=      5-min Rain = 0
KPA1 210331Z 14014KT 30/16 A2992 RMK A01 T02980159  RH  043%=      5-min Rain = 0
KPA1 210332Z 14014G19KT 30/16 A2992 RMK A01 T02970159  RH  043%=      5-min Rain = 0
KPA1 210333Z 14016KT 30/16 A2992 RMK A01 T02960159  RH  043%=      5-min Rain = 0
KPA1 210334Z 14014KT 30/16 A2992 RMK A01 T02970159  RH  043%=      5-min Rain = 0
KPA1 210335Z 14015KT 30/16 A2992 RMK A01 T02970159  RH  043%=      5-min Rain = 0
KPA1 210336Z 14015KT 30/16 A2992 RMK A01 T02970159  RH  043%=      5-min Rain = 0
KPA1 210337Z 14013KT 30/16 A2993 RMK A01 T02970159  RH  043%=      5-min Rain = 0
KPA1 210338Z 14016KT 30/16 A2993 RMK A01 T02960159  RH  044%=      5-min Rain = 0
KPA1 210339Z 14015KT 30/16 A2993 RMK A01 T02960159  RH  043%=      5-min Rain = 0
KPA1 210340Z 14015KT 30/16 A2993 RMK A01 T02960159  RH  043%=      5-min Rain = 0
KPA1 210341Z 14014KT 30/16 A2993 RMK A01 T02970159  RH  043%=      5-min Rain = 0
KPA1 210342Z 14015KT 30/16 A2993 RMK A01 T02960159  RH  043%=      5-min Rain = 0
KPA1 210343Z 14015KT 30/16 A2993 RMK A01 T02960159  RH  043%=      5-min Rain = 0
KPA1 210344Z 14013KT 30/16 A2993 RMK A01 T02960159  RH  044%=      5-min Rain = 0
KPA1 210345Z 14014KT 30/16 A2993 RMK A01 T02950159  RH  044%=      5-min Rain = 0
KPA1 210346Z 14016KT 30/16 A2993 RMK A01 T02950159  RH  044%=      5-min Rain = 0
KPA1 210347Z 14015KT 30/16 A2993 RMK A01 T02950158  RH  044%=      5-min Rain = 0
KPA1 210348Z 14014KT 30/16 A2993 RMK A01 T02950159  RH  044%=      5-min Rain = 0
KPA1 210349Z 14015KT 30/16 A2993 RMK A01 T02950159  RH  044%=      5-min Rain = 0
KPA1 210350Z 14015KT 29/16 A2993 RMK A01 T02940159  RH  044%=      5-min Rain = 0
KPA1 210351Z 14013G18KT 29/16 A2993 RMK A01 T02940159  RH  044%=      5-min Rain = 0
KPA1 210352Z 14016KT 29/16 A2993 RMK A01 T02940159  RH  044%=      5-min Rain = 0
KPA1 210353Z 14016KT 29/16 A2993 RMK A01 T02940159  RH  044%=      5-min Rain = 0
KPA1 210354Z 14014KT 29/16 A2993 RMK A01 T02940158  RH  044%=      5-min Rain = 0
KPA1 210355Z 14013KT 29/16 A2993 RMK A01 T02940159  RH  044%=      5-min Rain = 0
KPA1 210356Z 14014KT 29/16 A2993 RMK A01 T02930158  RH  044%=      5-min Rain = 0
KPA1 210357Z 14014KT 29/16 A2993 RMK A01 T02920158  RH  044%=      5-min Rain = 0
KPA1 210358Z 14015KT 29/16 A2993 RMK A01 T02920158  RH  044%=      5-min Rain = 0
KPA1 210359Z 14016KT 29/16 A2993 RMK A01 T02920158  RH  044%=      5-min Rain = 0
KPA1 210400Z 14015KT 29/16 A2993 RMK A01 T02920158  RH  044%=      5-min Rain = 0
KPA1 210401Z 14016KT 29/16 A2993 RMK A01 T02930158  RH  044%=      5-min Rain = 0
KPA1 210402Z 14017KT 29/16 A2993 RMK A01 T02930158  RH  044%=      5-min Rain = 0
KPA1 210403Z 14017KT 29/16 A2993 RMK A01 T02930158  RH  044%=      5-min Rain = 0
KPA1 210404Z 14014G19KT 29/16 A2993 RMK A01 T02920158  RH  044%=      5-min Rain = 0
KPA1 210405Z 15015KT 29/16 A2993 RMK A01 T02920158  RH  044%=      5-min Rain = 0
KPA1 210406Z 14015KT 29/16 A2993 RMK A01 T02920159  RH  044%=      5-min Rain = 0
KPA1 210407Z 14017KT 29/16 A2993 RMK A01 T02920159  RH  044%=      5-min Rain = 0
KPA1 210408Z 14017KT 29/16 A2993 RMK A01 T02920158  RH  044%=      5-min Rain = 0
KPA1 210409Z 14016KT 29/16 A2993 RMK A01 T02920158  RH  044%=      5-min Rain = 0
KPA1 210410Z 14015KT 29/16 A2993 RMK A01 T02920159  RH  044%=      5-min Rain = 0
KPA1 210411Z 14017KT 29/16 A2993 RMK A01 T02920159  RH  044%=      5-min Rain = 0
KPA1 210412Z 14014KT 29/16 A2993 RMK A01 T02910159  RH  045%=      5-min Rain = 0
KPA1 210413Z 14015KT 29/16 A2993 RMK A01 T02910159  RH  045%=      5-min Rain = 0
KPA1 210414Z 14014KT 29/16 A2994 RMK A01 T02900159  RH  045%=      5-min Rain = 0
KPA1 210415Z 14016KT 29/16 A2994 RMK A01 T02890159  RH  045%=      5-min Rain = 0
KPA1 210416Z 14014KT 29/16 A2994 RMK A01 T02890159  RH  045%=      5-min Rain = 0
KPA1 210417Z 14017KT 29/16 A2993 RMK A01 T02890159  RH  045%=      5-min Rain = 0
KPA1 210418Z 14015KT 29/16 A2994 RMK A01 T02890158  RH  045%=      5-min Rain = 0
KPA1 210419Z 14016KT 29/16 A2994 RMK A01 T02890159  RH  045%=      5-min Rain = 0
KPA1 210420Z 14016G21KT 29/16 A2994 RMK A01 T02890159  RH  045%=      5-min Rain = 0
KPA1 210421Z 14016KT 29/16 A2994 RMK A01 T02890159  RH  045%=      5-min Rain = 0
KPA1 210422Z 14017KT 29/16 A2994 RMK A01 T02890159  RH  045%=      5-min Rain = 0
KPA1 210423Z 14016KT 29/16 A2994 RMK A01 T02890159  RH  045%=      5-min Rain = 0
KPA1 210424Z 14017KT 29/16 A2994 RMK A01 T02890159  RH  045%=      5-min Rain = 0
KPA1 210425Z 15016KT 29/16 A2994 RMK A01 T02890159  RH  045%=      5-min Rain = 0
KPA1 210426Z 14015G20KT 29/16 A2994 RMK A01 T02880159  RH  045%=      5-min Rain = 0
KPA1 210427Z 14015KT 29/16 A2994 RMK A01 T02880159  RH  046%=      5-min Rain = 0
KPA1 210428Z 14014KT 29/16 A2994 RMK A01 T02870159  RH  046%=      5-min Rain = 0
KPA1 210429Z 15018KT 29/16 A2994 RMK A01 T02870159  RH  046%=      5-min Rain = 0
KPA1 210430Z 14015KT 29/16 A2994 RMK A01 T02870158  RH  046%=      5-min Rain = 0
KPA1 210431Z 14016KT 29/16 A2994 RMK A01 T02870159  RH  046%=      5-min Rain = 0
KPA1 210432Z 14017KT 29/16 A2994 RMK A01 T02870159  RH  046%=      5-min Rain = 0
KPA1 210433Z 14018KT 29/16 A2994 RMK A01 T02870159  RH  046%=      5-min Rain = 0
KPA1 210434Z 14016KT 29/16 A2994 RMK A01 T02870158  RH  046%=      5-min Rain = 0
KPA1 210435Z 15016KT 29/16 A2994 RMK A01 T02870158  RH  046%=      5-min Rain = 0
KPA1 210436Z 15017KT 29/16 A2994 RMK A01 T02870158  RH  046%=      5-min Rain = 0
KPA1 210437Z 15016KT 29/16 A2994 RMK A01 T02870158  RH  046%=      5-min Rain = 0
KPA1 210438Z 15015KT 29/16 A2994 RMK A01 T02860158  RH  046%=      5-min Rain = 0
KPA1 210439Z 15018KT 29/16 A2994 RMK A01 T02860158  RH  046%=      5-min Rain = 0
KPA1 210440Z 14018KT 29/16 A2994 RMK A01 T02850158  RH  046%=      5-min Rain = 0
KPA1 210441Z 14018KT 29/16 A2994 RMK A01 T02850158  RH  046%=      5-min Rain = 0
KPA1 210442Z 14016KT 29/16 A2994 RMK A01 T02850157  RH  046%=      5-min Rain = 0
KPA1 210443Z 15016G21KT 29/16 A2993 RMK A01 T02850158  RH  046%=      5-min Rain = 0
KPA1 210444Z 14016KT 29/16 A2993 RMK A01 T02850158  RH  046%=      5-min Rain = 0
KPA1 210445Z 15015KT 28/16 A2993 RMK A01 T02840158  RH  046%=      5-min Rain = 0
KPA1 210446Z 14015KT 28/16 A2993 RMK A01 T02840157  RH  046%=      5-min Rain = 0
KPA1 210447Z 14018KT 28/16 A2993 RMK A01 T02830157  RH  046%=      5-min Rain = 0
KPA1 210448Z 14017KT 28/16 A2993 RMK A01 T02830157  RH  046%=      5-min Rain = 0
KPA1 210449Z 14015KT 28/16 A2993 RMK A01 T02830157  RH  046%=      5-min Rain = 0
KPA1 210450Z 14015KT 28/16 A2993 RMK A01 T02830157  RH  046%=      5-min Rain = 0
KPA1 210451Z 14012KT 28/16 A2993 RMK A01 T02820157  RH  046%=      5-min Rain = 0
KPA1 210452Z 14014KT 28/16 A2993 RMK A01 T02810157  RH  047%=      5-min Rain = 0
KPA1 210453Z 15013KT 28/16 A2993 RMK A01 T02800156  RH  047%=      5-min Rain = 0
KPA1 210454Z 14015KT 28/16 A2993 RMK A01 T02800156  RH  047%=      5-min Rain = 0
KPA1 210455Z 14014KT 28/16 A2994 RMK A01 T02800156  RH  047%=      5-min Rain = 0
KPA1 210456Z 15014KT 28/16 A2994 RMK A01 T02790155  RH  047%=      5-min Rain = 0
KPA1 210457Z 15015KT 28/16 A2994 RMK A01 T02790155  RH  047%=      5-min Rain = 0
KPA1 210458Z 15015KT 28/16 A2994 RMK A01 T02790155  RH  047%=      5-min Rain = 0
KPA1 210459Z 15016KT 28/16 A2993 RMK A01 T02790155  RH  047%=      5-min Rain = 0

Page generated in 0.0773 seconds.